GFSSGP_925_temp_000.txt.gz
Temp
25 26 27 30 37 37 35 34 35 34 33 34 34 34 31 31 31 29 27 26 25 25 24 23 22 22 23 23 23 23 23 22 22 22 22 22 23 23 22 22 23 23 23 23 23 22 22 22 22
27 27 29 37 38 36 34 36 35 34 33 33 33 33 32 28 29 28 27 26 24 25 25 24 22 22 22 23 23 23 22 21 22 22 22 23 23 22 22 22 22 22 22 22 22 22 22 22 22
27 28 36 39 38 36 34 35 34 34 34 34 32 32 32 27 29 28 27 26 25 24 24 23 22 22 22 22 22 22 22 21 22 23 22 23 22 22 22 22 23 22 22 22 21 22 23 22 23
30 33 37 38 36 36 35 35 34 34 34 34 33 30 29 29 28 28 26 25 25 25 24 22 22 23 23 23 23 22 22 22 22 22 22 22 22 21 21 22 23 23 22 22 22 22 22 22 22
31 37 39 37 36 36 36 36 36 35 34 34 33 30 28 27 27 27 26 26 26 25 24 23 22 23 23 23 22 22 22 21 22 22 22 21 21 21 21 21 22 22 22 23 23 23 23 22 22
38 39 38 37 36 36 36 36 36 35 33 32 31 30 27 27 27 27 27 28 27 26 25 23 23 23 23 23 23 23 22 22 22 22 22 22 22 22 22 22 22 22 22 22 22 22 22 22 22
38 40 38 38 36 36 36 37 36 35 34 33 33 30 25 28 27 27 27 28 27 26 26 25 24 23 22 22 23 23 22 21 22 23 23 23 23 23 23 22 22 22 22 22 22 23 22 22 22
38 40 38 38 38 36 36 37 37 36 33 33 34 30 26 27 27 27 27 27 25 25 24 24 24 24 24 23 23 23 22 22 23 23 23 23 23 23 23 23 23 23 22 21 21 22 22 22 22
38 39 38 38 38 36 37 36 35 36 33 31 32 33 29 27 27 27 27 27 26 26 26 25 24 24 24 24 23 23 23 23 23 23 23 23 24 24 24 24 23 22 21 21 21 21 22 22 23
39 40 38 39 39 38 37 37 36 35 33 30 30 30 27 27 27 27 27 27 26 26 26 26 26 25 24 25 24 23 24 24 24 24 24 23 25 25 24 24 23 22 22 22 22 22 22 23 23
39 39 38 38 38 38 37 36 36 36 35 32 29 29 28 28 27 28 27 27 26 26 26 26 25 25 25 25 24 25 25 25 24 23 23 24 24 24 25 25 25 25 24 24 25 25 25 24 23
38 38 38 37 37 38 37 37 34 34 33 32 30 30 29 29 29 28 28 27 26 26 26 25 25 24 24 25 24 25 25 25 25 25 23 23 24 24 24 25 25 24 24 24 24 24 24 23 24
38 37 37 37 38 38 37 35 33 32 32 31 30 29 30 30 29 28 28 27 26 26 26 25 24 24 23 23 25 25 25 25 25 25 24 24 24 25 24 23 24 24 24 24 24 24 24 24 24
38 37 37 38 38 37 36 35 35 31 31 31 30 30 30 30 29 28 28 27 27 26 26 25 25 24 23 23 23 23 24 25 24 25 25 23 23 24 24 24 24 24 24 22 23 24 23 24 24
37 36 36 37 37 37 37 34 32 31 32 31 31 31 31 30 29 28 28 27 27 27 26 25 25 24 23 23 22 23 24 25 25 25 24 23 23 23 23 22 23 22 22 22 22 23 23 23 24
38 38 36 37 36 36 36 33 32 33 33 32 31 31 30 30 30 29 28 28 27 26 26 25 26 25 23 23 22 22 24 25 25 25 24 24 23 22 22 22 22 22 22 23 23 23 22 22 24
38 37 37 36 37 36 37 34 33 34 34 33 32 32 31 31 30 29 29 28 27 27 26 25 25 25 25 24 24 24 24 24 24 24 24 24 22 23 22 22 22 22 22 22 22 22 23 23 22
37 38 38 37 37 36 37 35 34 34 34 33 33 33 32 32 31 30 29 28 28 27 26 25 25 24 24 24 23 23 22 23 22 22 23 22 22 22 22 22 22 21 22 21 22 22 23 23 23
39 38 38 38 38 37 37 35 34 35 34 34 34 33 33 33 32 31 29 28 28 27 26 26 25 24 24 24 23 23 23 23 23 23 23 23 22 22 21 22 22 21 22 23 23 21 21 22 23
38 38 38 37 36 37 35 35 35 34 35 34 34 33 33 33 33 31 29 29 29 28 27 26 25 24 24 24 23 23 23 24 24 22 22 22 22 22 22 22 22 22 23 22 21 21 21 23 22
38 38 38 37 35 37 35 34 33 34 34 34 34 34 34 33 33 32 31 30 29 28 27 26 25 24 24 23 24 24 25 25 26 25 25 24 22 21 21 21 21 21 21 21 21 20 20 22 23
38 38 38 37 35 35 36 36 34 34 33 33 34 33 34 33 33 33 32 30 30 28 27 25 24 24 23 23 24 24 25 25 24 24 23 21 22 21 21 21 21 21 21 20 20 20 19 20 21
36 37 37 36 36 36 34 35 37 35 34 34 34 34 34 33 33 33 33 31 29 27 26 25 24 24 23 23 23 24 24 24 23 22 21 21 21 20 20 20 20 20 21 20 19 19 19 19 19
36 35 35 36 37 35 37 36 37 37 35 36 35 35 34 34 33 33 32 30 28 27 26 26 24 24 23 23 23 22 22 22 22 22 21 22 22 22 21 20 19 19 19 20 19 19 19 19 19
37 37 35 34 35 35 35 35 36 38 35 36 36 35 34 33 33 32 32 29 27 27 27 26 24 23 23 24 23 22 22 21 21 21 22 20 22 22 21 19 19 19 19 19 19 19 19 18 18
37 38 36 33 35 36 33 34 36 36 36 37 36 36 35 33 33 32 30 29 27 27 26 26 24 24 24 23 22 21 21 22 22 22 20 21 21 21 19 19 19 19 19 19 19 19 20 20 19
37 36 38 36 36 35 37 36 36 36 35 34 34 35 35 33 33 32 30 29 28 27 26 25 24 24 23 23 22 21 21 21 21 20 20 21 20 21 21 19 19 19 19 19 18 20 19 19 19
37 39 36 37 33 33 35 35 36 36 36 35 34 34 34 33 33 32 31 29 28 27 26 25 24 24 23 23 22 22 22 21 20 20 20 20 20 19 19 19 19 19 19 19 19 19 19 18 18
36 36 37 37 36 34 34 36 37 36 36 36 35 34 34 33 33 32 31 29 28 27 26 25 24 24 23 23 22 22 21 21 20 20 20 20 20 19 19 19 19 19 19 19 19 19 19 19 19
39 38 37 35 34 35 34 35 37 37 37 36 36 35 34 33 33 33 31 29 28 27 27 26 25 25 24 23 22 22 21 21 20 20 20 20 20 20 19 19 19 19 19 19 19 18 18 18 17

GFSSGP_925_temp_003.txt.gz
Temp
27 28 31 34 39 38 36 36 37 36 35 36 36 35 33 33 34 30 28 26 26 26 24 23 23 23 22 22 22 22 22 22 22 23 23 23 22 23 22 22 22 22 22 22 21 21 21 21 21
31 31 33 38 38 37 36 37 36 36 35 36 36 36 33 31 32 31 28 27 26 26 26 24 23 23 23 23 22 22 22 22 22 22 23 22 23 22 21 21 22 22 22 22 22 21 21 21 21
28 32 36 41 39 37 36 36 36 36 37 36 36 35 33 31 32 31 28 26 26 25 25 22 23 23 23 22 22 22 22 22 22 22 22 23 22 22 21 21 21 22 22 22 22 22 21 21 22
34 38 40 39 37 38 37 37 37 37 37 37 34 32 33 32 32 30 27 26 25 25 25 23 22 22 22 22 22 23 22 22 22 22 22 22 22 22 21 21 21 21 21 22 22 22 22 22 23
34 39 39 38 37 38 38 39 39 37 36 36 35 32 31 31 31 29 27 27 26 25 25 23 22 23 23 23 23 23 22 22 22 22 22 22 22 21 21 21 21 21 21 21 22 22 22 22 23
33 42 38 37 37 38 39 39 38 37 37 35 33 32 31 30 30 29 29 29 28 27 26 24 23 23 23 23 22 23 22 22 22 22 21 21 21 21 22 22 22 22 22 22 22 22 23 23 23
28 38 40 39 38 38 38 40 38 37 36 35 35 31 31 31 31 31 30 29 29 27 26 25 24 23 22 23 22 22 22 21 21 21 21 22 22 23 23 22 23 22 22 22 22 22 22 22 22
41 43 39 39 39 38 39 39 39 38 36 36 35 31 30 31 30 31 30 29 28 27 25 25 25 25 24 23 23 22 22 21 21 21 22 22 23 23 24 24 23 23 22 22 21 21 21 21 22
42 39 40 40 40 39 40 39 39 38 36 36 36 34 32 30 30 31 30 28 27 27 26 25 25 25 25 25 23 22 22 21 21 22 23 23 25 24 24 24 24 23 23 22 22 21 22 23 23
41 41 40 41 41 40 40 39 38 37 35 35 35 34 31 30 30 30 31 30 29 29 28 27 26 25 25 27 24 24 24 24 24 24 24 24 26 25 25 24 24 24 24 23 24 24 24 23 24
42 41 41 40 41 41 40 39 40 39 36 35 33 32 32 30 30 30 30 30 29 28 29 29 27 27 27 26 26 26 26 26 26 25 24 25 25 25 24 24 25 24 24 25 24 24 24 25 25
40 41 41 40 41 41 39 39 37 36 36 35 33 32 32 31 31 31 30 29 29 28 28 28 27 26 26 26 26 26 27 27 26 25 24 24 25 25 24 25 24 25 26 25 24 25 25 24 25
40 40 40 40 41 40 39 37 35 34 35 35 34 33 32 32 31 31 30 29 28 28 28 27 26 25 25 25 27 27 27 27 27 26 26 26 24 25 24 24 24 25 25 25 23 23 24 24 25
41 40 40 40 40 39 38 37 35 34 34 33 33 33 33 33 32 31 30 30 28 28 28 27 27 24 23 23 24 25 26 26 26 26 25 25 25 25 24 24 24 24 24 24 23 24 23 24 25
41 39 39 40 40 39 39 36 34 34 34 34 33 34 33 33 31 30 30 29 29 28 28 27 26 25 24 23 23 23 25 26 27 25 26 25 25 24 23 23 23 24 23 22 23 23 23 23 25
39 40 38 39 39 38 26 34 35 35 35 34 34 34 33 33 32 31 30 29 29 28 28 27 27 26 24 23 23 24 25 25 26 27 26 26 25 24 23 22 22 22 22 24 24 24 24 25 24
40 39 38 38 40 35 28 35 35 37 36 35 34 34 34 33 33 31 30 28 29 28 28 27 27 28 26 24 24 25 25 26 26 26 26 26 24 24 23 22 22 22 22 23 23 23 22 24 24
38 39 40 39 39 39 35 35 36 37 37 35 35 35 34 34 34 32 31 31 30 29 28 28 28 27 26 25 24 24 24 24 25 25 25 24 23 23 22 22 23 22 22 23 24 23 22 22 22
41 40 40 40 40 39 39 37 36 37 37 36 36 35 35 35 34 32 31 30 30 30 29 28 27 25 25 24 24 24 23 23 24 23 23 23 22 22 22 22 22 22 22 23 22 23 23 22 23
40 40 40 40 40 39 38 38 37 37 37 37 36 35 35 35 34 33 31 31 31 30 29 28 27 26 25 26 24 23 24 26 27 26 25 24 24 23 23 23 24 24 24 24 23 22 21 21 23
39 39 40 39 39 39 37 37 37 37 37 37 37 37 37 36 35 34 32 32 31 30 29 28 27 27 26 25 25 25 25 25 27 27 26 26 24 24 23 22 22 22 22 24 23 21 20 20 21
38 40 40 39 38 37 39 37 36 37 36 37 37 37 37 36 36 35 34 33 32 31 29 28 27 26 26 25 26 25 25 27 26 25 25 23 23 23 22 22 22 22 22 22 21 20 20 19 19
39 41 39 39 39 38 37 37 35 35 36 36 37 37 37 37 36 36 35 33 32 31 30 28 27 26 26 25 25 26 26 26 26 25 23 23 22 22 22 22 21 21 21 21 20 20 19 19 19
40 39 39 39 39 37 38 35 38 35 36 37 37 38 37 37 36 36 35 33 32 30 29 27 26 25 25 25 25 24 24 24 24 24 23 24 24 24 23 22 20 20 20 21 20 20 19 19 19
39 38 36 36 36 36 39 38 38 40 40 39 39 38 38 37 37 36 35 33 31 30 29 28 26 25 25 25 25 25 24 23 23 23 24 22 24 24 23 20 20 20 20 20 20 20 20 20 20
38 39 37 35 36 38 38 36 38 40 40 39 39 39 38 37 37 36 35 33 30 30 29 28 26 25 25 25 24 23 23 24 24 24 22 22 23 23 21 21 20 20 20 20 20 21 21 21 20
38 38 40 38 38 37 38 38 39 39 38 38 39 39 38 37 36 36 35 32 31 30 28 28 26 25 25 25 24 23 23 22 22 22 21 22 22 23 22 21 21 21 21 20 20 21 21 20 19
39 40 37 38 35 35 37 37 37 37 38 38 38 38 38 38 36 36 35 32 31 30 29 28 26 26 25 25 25 25 24 23 22 22 21 21 21 21 21 21 21 21 21 21 21 21 21 20 20
38 38 39 39 38 36 36 37 39 38 38 38 38 38 38 38 36 35 35 33 31 30 29 28 27 26 25 25 25 24 23 23 22 22 22 22 21 21 21 21 21 21 21 21 21 19 20 20 19
40 38 38 37 36 37 37 37 40 39 39 38 38 38 37 37 36 35 35 33 31 30 29 28 28 27 26 26 25 24 23 22 22 22 22 21 21 21 21 21 21 21 21 20 20 20 20 19 18

GFSSGP_925_temp_006.txt.gz
Temp
27 28 29 34 34 38 34 35 38 36 36 36 31 28 26 25 32 26 27 26 26 25 23 22 22 23 22 22 22 22 22 22 22 22 23 23 23 23 23 23 23 23 23 22 22 22 22 21 22
27 31 35 36 38 36 35 36 35 36 36 37 35 34 32 29 30 28 27 27 26 26 24 22 22 23 22 22 22 22 22 22 23 23 23 23 22 22 22 22 22 22 22 21 21 21 21 22 22
28 31 35 38 38 36 35 36 37 37 37 36 34 34 33 30 31 28 27 26 26 25 24 23 23 23 22 22 23 23 22 22 22 23 23 22 22 22 22 22 22 22 22 21 21 21 21 22 22
35 34 37 39 37 38 37 37 37 37 36 35 34 32 33 31 29 28 26 26 25 25 23 23 23 23 23 22 22 22 22 22 22 23 23 23 22 22 21 21 21 21 21 21 21 22 22 22 22
29 28 38 38 38 38 39 39 38 37 36 35 33 32 32 30 29 28 27 27 26 25 23 22 23 23 22 22 22 22 23 23 23 23 23 23 22 21 21 21 21 22 22 22 22 22 23 22 23
31 34 38 37 38 36 39 39 39 37 36 34 33 32 32 31 30 29 28 27 27 26 24 23 22 22 22 22 22 22 22 22 23 22 22 22 22 22 22 22 22 22 22 22 22 22 23 23 23
31 33 37 36 33 31 30 39 38 36 35 34 34 31 32 32 31 30 29 28 28 26 25 23 23 23 23 22 22 22 22 23 23 23 22 22 22 22 22 22 22 22 22 22 22 22 22 22 23
29 32 38 37 36 32 32 39 39 37 36 36 34 31 31 32 32 30 29 28 27 27 26 24 23 23 22 22 22 22 22 22 22 22 22 22 22 22 22 23 22 22 23 23 23 23 23 23 23
36 36 38 38 39 37 39 38 39 39 37 36 36 33 33 32 33 31 28 28 27 26 26 25 25 24 24 23 22 22 22 22 21 22 23 23 24 23 22 23 24 23 24 24 24 24 23 23 23
41 39 39 40 41 33 28 35 38 37 36 36 35 34 32 32 33 31 30 29 29 27 26 26 26 25 25 25 24 23 23 22 23 23 24 24 25 24 24 24 24 23 24 24 24 24 24 24 24
42 40 41 40 40 34 31 34 29 26 35 35 33 33 32 32 32 32 31 30 30 28 28 27 26 26 26 24 25 24 24 24 24 24 24 24 24 24 25 25 25 24 25 25 25 25 24 23 25
41 42 41 41 38 38 39 35 29 27 27 35 34 33 33 32 32 32 32 31 30 30 29 27 27 26 26 26 26 26 26 26 26 25 25 25 25 24 25 25 25 25 25 25 25 25 24 25 25
41 41 41 41 40 40 38 36 32 31 33 35 34 33 33 33 32 32 31 31 30 29 29 28 27 27 26 26 27 27 27 27 26 26 26 25 25 25 25 24 24 25 25 25 24 24 24 24 24
41 41 41 41 40 39 38 37 35 35 35 34 34 33 33 33 32 32 31 30 29 29 29 28 27 26 26 25 25 25 26 26 27 26 26 26 25 25 25 24 24 24 24 24 24 24 23 24 24
41 40 40 40 39 38 39 36 34 35 35 34 34 34 34 33 33 32 31 30 29 29 29 28 28 25 25 24 24 24 26 26 27 27 27 26 25 25 24 24 24 24 23 23 24 23 23 23 24
40 40 38 40 37 36 37 34 35 35 35 34 34 34 34 33 33 31 31 30 30 29 28 28 27 26 25 24 24 23 24 25 26 26 26 26 26 25 24 24 23 23 23 23 23 23 23 24 24
40 38 38 38 37 37 36 35 36 37 36 35 35 35 34 33 33 31 30 29 29 28 28 28 27 26 25 24 24 24 25 25 25 26 26 26 26 24 24 23 23 23 22 22 22 23 23 23 23
38 38 39 38 38 37 37 36 36 37 37 36 35 35 34 34 34 32 30 29 28 28 28 27 27 27 26 25 24 24 24 24 25 25 25 25 24 24 23 23 23 22 22 22 23 23 22 22 22
41 40 38 39 38 37 36 36 37 38 37 36 36 35 35 35 34 33 31 30 30 29 29 28 27 27 26 25 24 24 24 24 24 24 25 25 24 24 23 22 22 23 23 23 22 22 22 22 22
41 40 40 40 41 40 36 35 37 38 37 37 36 35 35 35 34 33 32 32 31 30 28 28 27 26 25 24 24 24 25 25 25 25 25 25 24 24 24 23 23 23 23 23 23 23 22 21 21
40 40 40 40 40 40 39 35 31 36 38 38 37 36 36 35 34 33 32 32 32 30 29 28 27 26 25 25 25 25 25 26 26 26 26 24 24 24 23 23 22 22 22 22 23 22 21 20 20
39 41 40 41 39 37 39 36 32 35 37 37 37 37 37 36 35 34 33 32 32 30 29 28 28 27 26 26 26 26 26 26 26 26 25 24 24 23 23 22 22 22 21 21 21 21 20 19 19
39 41 40 40 39 39 39 37 35 37 36 37 37 38 37 37 36 35 34 33 32 30 30 28 27 26 26 25 26 25 25 25 25 25 24 24 24 23 23 23 22 21 21 21 20 20 19 20 19
41 40 40 40 39 37 38 38 34 33 36 36 37 38 38 38 37 36 35 33 33 31 30 28 26 26 25 25 25 25 25 24 24 23 23 23 24 24 24 22 21 20 20 20 20 20 20 20 19
40 39 36 36 36 36 40 38 37 38 39 37 30 28 38 38 37 36 35 33 33 31 30 27 26 25 25 25 25 25 25 24 23 23 23 23 24 24 23 21 21 20 20 20 20 20 20 20 20
39 39 37 35 36 38 40 37 38 40 40 38 37 36 39 38 37 36 35 33 32 30 29 28 25 25 25 25 25 24 23 23 23 23 22 22 23 23 22 21 21 21 21 21 20 20 20 20 20
39 38 40 39 39 38 38 39 40 40 40 40 40 40 38 38 38 37 36 33 31 30 29 27 25 25 25 25 24 23 23 23 23 22 22 22 22 22 21 21 21 21 21 21 21 21 21 20 20
40 40 37 38 36 35 38 38 38 37 38 39 39 39 39 38 38 38 36 33 31 30 29 27 26 25 25 25 24 24 24 23 22 22 22 21 21 21 21 21 21 21 21 21 20 20 20 20 19
39 39 39 39 38 37 36 35 38 38 38 38 39 39 39 39 37 37 36 33 31 30 29 28 26 25 25 25 25 25 24 24 23 22 22 22 22 21 21 21 20 20 20 21 20 20 19 19 19
41 39 39 37 36 37 37 37 40 39 39 39 38 38 38 38 37 37 36 33 31 31 29 28 27 26 25 25 25 24 23 23 23 22 22 22 22 21 21 21 21 20 21 21 20 20 19 19 19

GFSSGP_925_temp_009.txt.gz
Temp
29 29 26 27 27 29 31 32 32 29 27 27 27 26 27 26 27 23 25 24 23 22 22 22 22 22 22 22 22 22 22 22 23 23 23 23 23 23 23 23 23 23 22 22 22 22 22 22 23
29 28 27 28 30 30 30 33 32 32 29 28 29 29 27 26 27 25 25 24 24 22 23 22 22 22 22 22 22 22 21 22 23 23 23 23 23 23 22 23 23 23 23 22 22 22 22 22 22
28 28 29 29 31 30 31 33 34 33 29 30 30 30 28 26 27 26 26 25 24 23 23 22 22 22 22 22 22 22 22 23 23 23 23 23 22 23 23 23 23 22 22 22 22 22 22 22 22
30 27 30 32 32 33 34 34 34 33 33 33 30 28 28 27 27 26 25 25 24 23 23 23 23 23 22 22 23 22 23 23 23 23 23 23 23 23 23 23 23 22 22 22 22 22 22 22 22
31 27 27 32 34 35 35 35 35 33 32 31 29 27 26 27 26 26 25 24 23 23 23 23 23 22 22 22 22 23 23 23 23 23 23 23 23 22 22 22 22 22 22 22 22 22 22 22 23
27 27 28 32 33 34 35 35 34 32 32 30 28 27 26 26 26 26 26 25 24 23 23 22 22 22 22 22 22 22 23 23 23 23 22 22 23 23 22 22 22 22 22 22 23 23 23 23 23
26 26 25 32 33 33 34 35 33 33 32 31 30 26 27 27 27 27 26 25 24 24 23 23 23 22 22 22 22 22 23 23 23 22 23 23 23 22 22 22 22 23 23 23 23 23 23 23 23
28 28 29 29 33 33 34 35 34 33 32 33 32 28 27 28 27 27 27 26 25 24 23 23 23 23 22 22 22 22 23 23 23 22 23 23 23 22 22 22 23 22 22 22 23 23 23 23 23
34 27 29 27 29 32 34 35 35 34 33 32 33 31 30 29 28 27 26 26 25 24 24 24 24 23 23 22 22 22 22 22 23 23 24 24 23 23 25 24 23 23 23 23 24 24 23 24 24
31 30 34 32 33 31 32 32 29 33 33 31 31 32 31 30 27 27 26 26 25 25 25 24 24 24 23 23 24 24 24 24 24 24 24 24 23 23 24 24 24 24 24 24 24 24 24 24 24
34 34 36 36 35 32 31 31 30 30 32 31 30 30 31 29 27 27 27 26 26 26 26 25 25 24 24 24 24 24 24 25 24 24 24 24 23 24 24 24 24 24 24 24 24 24 23 24 24
38 38 37 35 34 32 30 29 32 30 30 32 31 31 31 30 29 29 29 28 26 26 26 26 26 25 25 25 24 24 24 24 24 24 24 24 24 24 24 24 24 24 24 24 24 24 24 24 24
38 38 37 37 35 31 31 29 29 31 31 33 32 31 30 29 30 30 30 28 29 27 27 26 26 26 25 25 25 24 25 25 25 25 25 25 25 25 25 24 24 24 24 24 24 23 24 24 24
39 38 38 37 35 35 33 30 30 31 32 32 31 30 30 30 30 30 30 29 29 28 27 26 26 26 26 26 25 26 26 26 26 26 25 25 25 25 25 24 24 24 24 24 23 24 24 23 23
39 37 38 37 36 34 34 32 32 32 33 32 31 31 31 30 31 30 30 29 29 29 26 26 27 27 26 26 25 25 25 26 26 26 26 26 26 25 25 24 24 24 24 23 23 23 23 23 23
38 36 33 34 35 35 33 30 32 32 32 31 32 32 31 29 30 31 30 29 29 29 29 28 28 27 26 26 25 25 25 26 25 26 26 26 26 25 25 24 24 23 23 23 23 22 23 23 23
35 33 33 34 35 35 33 31 33 33 32 31 32 32 31 30 29 31 30 29 29 29 29 28 27 26 26 25 24 24 25 25 25 25 25 25 25 25 24 24 23 22 22 22 22 22 22 22 22
33 35 33 34 34 35 33 31 33 33 32 32 32 31 31 30 30 30 30 30 30 29 29 28 27 27 25 25 24 24 24 24 24 24 25 25 25 24 24 23 23 23 22 22 22 22 22 22 22
36 36 34 36 36 34 33 33 33 33 33 32 31 30 30 30 29 29 29 29 29 28 28 28 27 27 25 25 24 24 24 24 24 25 25 25 24 24 23 23 23 22 22 22 22 22 22 21 21
37 36 33 35 36 33 33 33 34 30 31 33 32 31 31 29 29 29 28 28 28 28 28 27 27 26 25 25 25 24 24 24 25 25 25 24 24 23 23 23 23 23 22 22 22 22 21 21 21
36 36 35 35 36 36 33 31 27 30 31 33 33 32 32 30 29 28 28 28 28 27 27 27 27 27 26 26 25 24 25 25 25 24 24 24 24 24 24 23 22 22 22 21 21 21 20 20 20
34 38 39 38 34 30 33 27 27 28 30 33 33 32 32 30 30 29 29 29 27 28 28 27 27 27 26 25 25 24 25 25 25 24 24 24 24 23 23 23 22 21 21 21 20 20 20 19 19
36 38 38 37 35 34 33 30 29 28 28 32 33 33 33 31 30 30 30 30 28 28 28 28 27 26 25 25 25 25 25 25 24 24 24 25 24 24 23 22 22 21 21 20 20 20 20 19 19
39 38 36 35 32 29 32 31 27 29 31 34 34 34 34 32 31 31 31 31 28 28 28 28 27 26 25 26 25 25 25 24 24 23 24 24 23 23 22 22 22 21 20 20 20 20 20 20 19
38 34 30 29 30 29 32 32 29 33 35 34 31 31 31 33 32 31 30 30 28 27 27 27 26 26 25 25 25 25 24 24 23 23 23 23 23 22 22 22 21 21 20 20 20 20 20 20 20
34 31 28 30 30 32 34 33 32 35 35 34 33 33 34 31 33 31 30 30 28 27 26 26 26 26 25 25 25 25 24 23 23 23 22 23 23 22 22 21 21 21 21 21 20 20 20 20 20
34 32 33 32 34 31 33 35 35 34 33 34 33 32 33 33 32 32 30 30 29 27 25 26 26 26 25 25 25 24 24 23 22 22 22 22 22 22 21 21 21 21 21 20 20 20 20 20 20
34 35 33 28 31 30 32 33 31 32 32 32 31 30 31 30 33 33 30 30 29 27 25 26 26 26 25 25 25 24 23 23 23 22 22 21 22 22 21 21 21 20 20 20 20 20 20 20 19
34 33 33 30 29 29 30 31 33 32 32 32 33 32 31 31 30 28 29 30 28 27 25 25 25 25 24 24 25 24 23 23 23 22 22 21 21 21 21 21 21 20 20 20 20 20 20 19 19
35 33 31 28 31 30 28 30 36 33 33 32 33 32 33 31 30 30 31 30 28 27 25 24 24 24 24 25 24 24 24 24 23 22 22 22 22 21 21 21 21 21 20 20 20 20 20 19 19

GFSSGP_925_temp_012.txt.gz
Temp
26 26 26 26 27 27 27 28 28 27 26 27 27 28 26 26 27 23 23 22 22 22 22 22 22 22 21 23 22 22 23 23 23 23 23 23 23 23 23 22 22 22 22 22 22 22 22 22 22
26 25 26 26 27 27 27 29 27 28 28 27 28 28 26 25 25 23 22 23 23 22 22 22 22 22 22 22 22 22 23 23 23 23 23 23 23 23 23 23 23 23 23 23 22 22 22 22 22
27 27 27 27 27 28 27 29 29 29 28 28 28 28 26 24 25 24 23 23 22 22 22 22 22 22 22 22 22 23 23 23 23 23 23 23 23 23 22 23 23 23 23 22 22 22 22 22 22
26 26 28 30 30 30 30 29 30 29 29 30 28 26 26 26 26 24 23 23 23 22 22 22 22 22 22 22 23 23 23 23 23 23 23 23 23 22 22 22 22 22 22 22 22 22 22 22 22
28 26 27 29 31 31 31 30 29 29 29 28 28 25 25 25 24 24 23 23 23 22 22 22 22 22 22 22 23 23 23 23 23 23 22 22 22 22 23 23 23 22 22 22 22 22 22 23 22
27 27 27 27 31 32 32 32 31 29 28 27 25 25 24 25 24 23 23 23 23 23 22 22 22 22 22 22 22 22 23 23 23 23 22 23 22 22 23 23 22 22 22 22 22 22 22 23 22
28 27 28 30 30 30 30 31 29 28 27 28 28 25 24 25 24 24 24 23 23 23 22 22 22 22 22 22 21 22 23 23 23 22 22 22 22 23 23 22 22 22 22 22 22 22 22 23 22
29 28 29 28 30 30 31 31 31 29 29 29 28 25 23 25 25 24 23 23 23 22 22 22 22 22 22 22 22 22 22 23 23 23 23 23 23 23 23 23 23 23 22 22 22 23 23 23 23
30 26 27 30 30 31 32 31 32 31 29 29 30 27 26 26 26 24 23 22 22 23 23 22 22 22 22 22 22 23 23 24 24 24 24 23 23 23 23 24 24 23 23 23 23 23 23 23 24
30 27 30 31 31 30 32 32 31 30 29 29 29 28 27 26 26 25 23 22 22 22 23 23 23 23 23 22 22 23 23 24 24 24 24 23 23 23 24 24 23 24 24 23 23 23 23 23 24
31 32 32 32 32 31 30 30 30 30 29 29 27 27 27 26 25 25 24 24 24 24 24 24 24 23 23 23 23 23 24 24 25 25 24 23 24 24 24 24 24 24 24 24 24 24 23 24 24
32 31 34 33 32 30 31 29 29 29 30 30 28 27 27 26 26 25 25 24 24 24 24 24 24 24 24 24 24 24 24 24 24 25 24 24 24 24 24 24 24 24 24 24 23 23 23 23 23
32 32 34 33 31 30 29 29 29 30 30 31 29 28 26 26 26 26 25 25 24 25 25 24 24 24 24 24 24 24 24 24 25 24 24 24 24 25 24 24 24 24 24 23 23 23 23 23 23
35 34 33 32 30 30 29 29 30 30 30 30 30 28 28 27 27 27 26 25 25 25 25 25 25 25 25 24 24 24 24 24 24 24 24 24 24 25 24 24 24 24 24 24 23 23 23 23 23
35 33 33 31 31 31 31 30 30 30 30 30 29 29 28 28 28 27 27 27 26 26 26 25 25 25 25 25 25 25 25 24 25 25 25 25 25 25 24 24 24 24 24 23 23 23 23 22 22
33 32 29 31 32 31 30 28 30 30 30 29 29 30 29 28 28 28 28 29 28 27 26 26 26 25 25 25 25 26 25 25 25 25 25 25 25 25 24 24 24 24 23 23 23 22 22 22 22
30 30 31 31 32 31 29 28 30 30 30 29 29 29 29 28 28 28 28 29 28 27 27 26 27 27 26 26 25 25 25 25 25 25 25 25 25 24 24 24 23 23 23 23 22 22 22 22 22
31 30 32 31 32 32 30 29 30 30 30 30 29 29 29 28 28 28 28 29 29 28 27 27 27 27 26 25 25 24 24 24 24 24 25 25 24 24 24 23 23 23 22 22 22 22 22 22 21
33 32 32 34 33 31 30 29 30 30 30 30 29 29 29 28 28 28 28 28 28 28 28 28 27 26 25 25 24 24 23 24 24 24 24 24 24 23 23 23 23 22 22 22 21 21 21 21 20
33 33 33 33 34 31 30 30 31 31 30 30 30 29 29 28 27 27 27 27 28 28 29 28 27 26 25 25 25 24 24 24 24 24 24 24 24 24 23 23 22 22 22 21 20 20 20 20 19
33 32 34 32 33 32 31 29 28 30 31 30 31 30 29 27 27 27 26 27 28 28 28 27 27 27 25 25 24 24 24 23 24 24 24 23 23 24 23 22 22 22 21 21 20 20 20 19 19
30 34 36 33 33 29 31 28 27 30 30 30 30 30 29 28 28 27 27 26 26 27 28 27 26 26 25 25 24 24 24 24 23 23 24 24 24 23 23 22 22 21 21 20 20 20 19 19 19
33 34 34 34 32 30 30 27 31 27 29 29 29 30 30 28 28 27 27 27 27 27 28 27 26 26 26 25 25 24 24 24 24 23 23 24 23 23 22 22 21 21 21 20 20 20 19 19 19
35 36 30 29 27 27 29 30 27 26 30 30 29 31 30 29 28 28 28 27 27 27 27 27 26 26 26 25 24 24 24 23 23 23 23 23 23 23 22 21 21 21 21 20 20 20 20 19 19
35 29 28 29 27 27 26 29 31 28 31 31 30 31 31 30 29 28 27 26 26 26 26 26 26 26 26 24 25 24 24 24 23 23 23 23 23 22 22 22 21 21 21 20 20 20 20 20 19
30 29 26 29 28 29 29 30 32 30 32 31 32 32 32 30 30 28 28 27 26 26 25 25 25 26 25 25 25 25 24 24 23 23 23 22 22 22 21 21 21 21 20 20 20 20 20 20 19
33 29 29 28 29 28 29 31 31 32 31 32 30 32 31 30 30 29 29 28 27 26 25 25 25 25 25 25 25 24 24 23 23 22 22 22 22 21 21 21 21 20 20 20 20 20 20 19 19
33 31 30 25 29 30 28 30 29 30 30 31 31 31 30 31 30 29 29 29 27 27 26 25 24 25 25 25 24 24 24 23 22 22 22 22 21 21 21 21 20 20 20 20 20 20 20 20 19
31 31 29 28 25 27 27 28 28 29 30 30 31 31 29 29 30 30 28 29 27 27 26 24 23 23 25 25 24 24 24 23 23 22 22 22 21 21 21 21 20 20 20 20 20 20 20 19 19
31 30 28 27 29 26 26 27 31 30 30 31 30 30 27 27 28 30 29 29 28 26 25 24 23 22 25 25 24 24 24 23 22 22 22 22 21 21 21 21 21 20 20 20 20 20 20 19 19

GFSSGP_925_temp_015.txt.gz
Temp
25 23 23 22 25 25 26 27 28 27 27 26 27 27 24 24 26 23 22 22 21 21 21 21 21 21 21 21 21 21 21 22 23 23 23 23 23 23 23 23 23 22 23 22 22 22 21 22 22
26 24 24 23 25 25 26 28 27 27 27 27 28 26 25 24 24 20 21 22 22 21 21 21 21 21 21 21 22 22 21 22 23 23 23 23 23 23 23 22 23 23 23 22 22 22 22 22 22
23 26 24 25 26 25 25 27 27 27 28 28 26 27 25 23 23 22 22 21 21 21 21 22 22 21 21 22 23 23 23 23 23 23 23 23 23 22 22 22 23 22 22 22 22 22 22 22 22
25 25 25 27 28 29 28 28 28 27 28 27 26 24 25 25 24 23 22 21 21 21 21 22 21 21 21 22 23 23 23 23 23 23 22 22 22 22 22 23 23 22 22 22 22 22 22 22 22
25 24 26 27 29 29 29 29 28 27 28 27 27 25 24 23 24 22 21 22 22 21 22 21 21 21 22 23 22 22 22 21 21 22 22 22 22 21 22 22 22 22 23 23 22 22 22 22 22
26 25 26 27 28 29 28 29 28 28 27 25 25 24 23 23 22 22 22 22 22 22 21 21 22 22 22 22 21 22 22 22 22 22 21 21 21 21 22 22 22 23 22 22 22 22 22 22 22
27 25 26 27 28 28 28 29 27 26 27 26 26 23 22 23 22 22 22 22 22 22 22 22 22 22 21 22 22 22 22 22 23 22 22 22 22 22 22 22 23 22 22 22 22 22 22 22 22
27 26 28 28 28 28 29 28 27 28 27 28 26 23 23 23 22 22 22 22 22 22 22 22 21 21 22 22 22 22 23 23 23 22 23 23 23 23 23 23 23 23 22 22 22 23 23 23 23
29 26 27 28 28 28 29 28 29 29 27 28 28 25 25 24 23 22 21 21 21 21 22 22 22 22 22 22 22 22 22 22 23 22 22 22 23 23 23 23 23 23 23 23 23 23 23 23 23
29 27 30 30 30 29 29 29 28 28 27 27 26 26 25 24 23 22 21 21 21 21 21 22 22 22 22 22 22 22 22 22 23 23 23 23 23 23 23 23 23 23 23 23 23 23 23 23 23
29 29 31 31 30 31 30 29 29 27 26 26 25 25 25 25 23 22 22 21 22 22 22 22 22 22 22 22 22 23 23 23 23 23 23 23 23 23 23 24 23 23 23 23 23 23 23 23 23
30 31 32 31 30 29 29 29 29 28 27 28 26 26 25 25 24 23 23 22 22 22 23 23 23 23 23 23 23 23 23 23 23 24 23 23 23 23 24 24 24 24 23 23 23 23 23 23 23
30 31 32 31 29 29 29 29 29 28 29 28 27 26 25 25 24 24 23 23 23 22 23 23 23 23 23 23 24 24 24 24 24 24 24 24 23 24 24 24 24 23 23 23 23 23 23 23 23
31 31 31 29 28 29 28 29 29 29 28 27 26 26 26 25 25 25 24 23 23 23 24 24 24 24 23 23 24 24 24 24 24 24 24 24 24 24 23 23 24 23 23 23 23 23 23 23 22
32 30 30 30 29 28 29 28 27 29 27 27 26 26 26 25 25 25 24 24 24 24 24 24 24 25 24 24 24 24 24 24 24 25 25 24 24 24 24 23 24 23 23 23 23 22 22 22 22
30 29 28 30 29 30 29 27 28 29 28 27 27 26 26 26 26 26 25 25 25 25 24 25 25 25 25 24 24 24 24 24 24 25 25 25 24 24 24 24 24 23 23 23 22 22 22 22 22
30 29 28 29 30 30 28 27 28 29 29 28 28 27 27 26 26 26 26 26 26 26 25 25 25 25 25 24 24 24 24 24 24 24 25 24 24 24 24 24 23 23 23 22 22 22 21 22 22
29 28 29 29 31 30 28 27 28 28 28 28 28 28 28 27 26 26 26 26 27 26 26 26 25 25 25 24 24 24 24 24 24 24 24 24 24 24 24 23 23 23 22 22 22 22 21 21 20
29 29 29 30 31 29 28 27 28 28 28 27 27 27 28 27 27 27 26 26 26 26 26 26 25 25 25 24 24 24 24 24 24 24 23 23 23 23 23 23 23 22 22 21 21 21 21 20 20
31 30 30 32 30 29 27 27 29 28 28 28 28 28 28 27 26 26 26 26 26 27 27 26 26 25 25 25 25 24 24 24 23 23 23 24 24 23 23 23 22 22 21 21 20 20 20 19 19
30 30 30 30 30 29 28 27 27 28 29 29 29 29 28 27 26 26 26 26 26 26 26 27 26 26 27 25 25 24 23 23 23 23 24 23 23 23 23 22 22 21 21 21 20 19 19 19 18
30 31 32 31 30 28 29 25 26 27 28 29 29 29 28 28 27 26 26 25 25 27 27 27 27 27 26 25 24 24 23 23 23 23 24 23 23 23 23 22 22 21 21 21 20 19 19 19 18
31 31 31 31 30 28 28 26 26 27 26 28 29 29 29 28 27 27 26 26 26 27 27 27 27 26 26 25 24 24 23 23 23 23 23 23 23 23 22 22 21 21 21 20 19 19 19 19 19
33 33 27 25 25 26 28 28 26 26 29 29 30 29 29 28 28 27 27 27 26 26 27 28 27 26 26 25 24 24 23 23 23 23 23 23 23 23 22 21 21 21 20 20 20 19 19 19 19
31 28 26 27 26 25 26 27 29 28 30 31 30 28 29 29 28 27 27 26 25 25 26 27 27 26 25 25 24 24 24 24 24 23 23 22 22 22 22 21 21 21 20 20 20 20 19 19 19
28 27 24 27 25 27 25 27 30 31 31 32 31 30 29 28 28 27 27 26 26 26 25 25 25 25 25 25 24 24 24 24 23 23 23 22 22 22 22 21 21 20 20 20 20 20 19 19 19
30 27 28 26 25 25 25 28 30 30 29 31 31 30 29 29 28 27 27 27 27 26 25 25 24 24 24 25 24 24 24 24 23 23 22 22 22 22 21 21 21 20 20 20 20 20 19 19 19
31 28 29 23 27 28 27 30 28 32 29 28 30 29 29 29 28 28 27 27 26 26 26 25 24 23 24 24 24 24 25 24 23 23 22 22 22 21 21 21 20 20 20 20 20 19 19 19 19
29 28 26 25 24 26 26 27 26 31 28 27 28 30 30 30 28 28 27 27 26 26 26 25 24 23 23 24 24 24 24 24 23 23 22 22 21 21 21 20 20 20 20 20 20 19 19 19 19
29 29 28 29 26 23 25 26 29 28 27 29 29 29 29 30 28 28 28 28 27 26 26 25 23 23 23 24 24 24 24 23 23 22 22 22 21 21 21 21 20 20 20 20 20 20 19 19 19

GFSSGP_925_temp_021.txt.gz
Temp
22 21 22 25 29 31 28 28 29 28 28 28 28 28 25 25 27 26 22 22 22 21 21 21 21 21 21 21 21 21 21 21 22 22 22 23 23 23 22 22 22 22 21 21 21 21 21 21 21
23 24 25 26 30 30 28 29 28 29 28 28 28 27 26 24 24 23 23 21 22 22 21 21 21 21 21 21 21 21 21 21 21 22 22 22 22 22 22 22 22 22 22 22 21 21 21 21 21
24 25 27 29 29 30 29 29 29 28 28 28 27 27 26 23 23 23 22 21 21 21 21 21 21 21 21 21 21 21 21 21 21 22 22 21 22 22 22 22 22 22 22 22 22 22 21 22 21
25 26 28 31 30 29 29 29 29 28 28 28 28 26 25 24 24 23 22 22 22 21 21 21 21 21 21 21 21 21 21 21 21 22 21 22 22 22 23 22 22 22 22 22 22 22 21 21 22
25 27 30 31 30 29 29 30 29 29 28 28 28 25 25 23 23 22 22 22 22 22 21 21 21 21 21 21 21 21 21 21 21 22 22 22 22 22 22 22 22 22 22 22 22 22 22 21 21
28 28 32 31 30 29 29 30 29 28 27 27 27 26 24 23 23 22 22 22 22 22 22 22 21 21 22 21 21 22 22 21 22 22 22 23 23 23 23 22 23 22 22 22 22 22 22 22 22
30 31 31 31 30 30 29 30 29 28 27 27 28 26 23 24 23 22 22 22 22 22 22 22 21 21 21 21 21 22 21 22 22 22 22 23 23 23 23 23 22 22 22 22 21 22 22 22 22
31 32 31 31 31 31 30 30 29 28 27 28 28 25 23 24 23 22 22 22 22 22 22 22 22 22 22 21 21 21 21 21 21 22 22 22 23 23 23 22 22 22 22 22 22 22 22 22 22
30 32 32 31 31 31 30 29 29 29 28 28 28 27 27 23 23 23 22 22 22 22 22 22 22 21 21 22 21 21 21 22 22 22 22 22 22 22 22 22 23 23 23 23 23 23 23 23 23
32 33 33 33 33 32 30 30 29 28 28 27 26 26 24 23 23 24 23 23 23 22 22 22 22 22 21 22 21 21 22 22 22 22 21 22 22 22 22 23 23 23 23 23 23 23 23 23 23
32 34 33 32 33 33 31 30 30 29 28 28 26 25 25 24 24 24 24 24 23 23 22 22 21 21 22 22 21 22 22 22 21 21 22 22 22 22 22 22 22 22 23 23 23 23 23 22 22
33 33 34 34 32 32 31 31 30 29 30 30 28 26 25 25 25 25 24 24 23 22 22 22 21 21 21 21 22 22 22 21 22 22 23 22 22 22 22 22 22 23 22 23 23 23 22 22 22
33 33 33 33 32 33 32 31 30 30 29 29 27 26 26 26 25 25 25 24 23 23 22 22 21 21 21 21 21 22 22 22 22 22 22 22 22 22 23 23 23 23 23 22 23 22 22 22 22
33 33 31 31 31 31 31 30 30 30 28 27 27 26 26 26 25 25 24 24 23 23 23 22 21 21 21 21 21 21 21 22 22 22 22 23 22 22 23 23 23 23 23 22 22 22 22 21 21
32 31 31 31 31 31 32 29 30 30 28 27 27 27 27 26 25 25 25 24 23 23 23 23 22 21 21 22 22 21 22 22 22 22 23 23 23 23 23 23 23 23 23 23 22 22 21 22 21
33 33 32 31 31 30 32 32 31 29 29 28 28 27 27 27 26 25 25 25 24 24 23 23 23 22 22 22 22 22 22 22 22 23 23 24 24 24 24 23 23 23 23 21 22 21 21 21 21
31 33 33 30 32 30 31 32 32 30 29 29 28 28 27 27 26 26 25 25 24 24 23 23 23 23 23 24 23 22 22 22 22 22 23 24 24 24 24 24 23 23 23 22 21 21 21 21 21
33 32 32 32 31 31 31 31 30 29 30 29 29 28 28 28 27 26 26 25 25 24 23 23 23 22 22 22 22 21 21 22 22 22 23 24 23 23 23 23 23 22 22 21 21 21 20 20 21
35 34 34 32 32 31 31 31 30 29 29 30 29 28 29 28 29 27 26 26 25 24 24 23 23 23 22 22 22 22 23 23 22 22 23 23 23 23 23 23 23 22 22 21 21 20 20 21 20
33 34 34 32 31 32 31 31 31 30 29 30 29 29 29 29 29 27 27 26 25 24 24 23 23 23 24 23 23 23 23 23 23 22 22 23 23 23 23 23 22 22 21 21 20 19 21 20 19
33 34 33 34 32 32 32 32 31 30 30 30 30 30 30 29 29 28 27 27 26 25 24 24 24 24 25 23 22 21 22 22 22 22 22 22 23 23 23 23 22 22 21 21 20 19 19 21 19
33 33 34 34 32 32 32 32 32 32 30 30 30 30 30 30 30 30 28 27 26 25 25 24 24 24 24 23 22 22 23 24 24 23 22 22 23 23 23 22 22 22 21 21 20 19 19 19 20
34 33 33 34 33 33 30 31 35 30 30 31 31 31 31 31 31 30 29 28 27 26 25 25 25 25 25 23 23 23 23 24 23 22 23 23 23 22 22 22 22 22 21 21 20 20 19 18 19
32 32 31 31 33 30 33 32 34 32 31 33 32 32 32 32 31 31 30 29 27 26 26 25 24 25 25 23 23 22 23 23 22 22 22 21 21 21 22 22 22 21 21 20 20 19 18 18 18
33 33 31 30 29 31 33 31 34 36 35 35 35 33 32 32 32 31 30 29 27 26 26 25 24 24 24 23 23 23 22 22 22 23 22 21 21 21 22 22 21 21 21 20 19 19 18 18 19
32 34 33 30 30 32 29 30 33 35 36 34 34 35 33 32 32 31 30 29 28 27 26 25 24 24 24 23 23 22 22 22 23 23 22 22 22 21 21 22 21 21 20 20 19 18 18 18 18
32 31 36 33 29 32 33 31 32 34 34 35 35 34 33 33 32 32 31 29 28 27 26 25 25 24 24 24 23 22 22 22 23 23 23 23 22 21 22 22 21 20 20 20 18 19 19 19 18
33 34 32 32 31 31 32 31 35 34 35 35 35 34 34 33 33 32 32 30 29 28 27 26 25 25 25 24 23 23 22 23 23 22 23 22 23 22 21 21 20 20 19 20 19 19 18 18 18
31 31 31 34 33 33 32 33 34 36 36 37 37 36 35 34 32 32 31 30 29 28 27 26 25 25 24 24 24 23 22 21 23 23 23 23 22 22 21 21 20 19 19 19 19 18 18 18 18
34 33 33 33 30 31 33 34 35 35 37 36 35 36 34 33 32 32 31 30 29 28 28 27 26 26 25 25 23 22 21 22 24 23 23 23 22 21 21 21 20 20 19 19 18 18 18 18 18

GFSSGP_925_temp_024.txt.gz
Temp
22 23 25 27 28 31 31 30 33 31 31 31 30 29 29 29 29 28 26 23 22 22 22 21 21 22 21 21 21 21 22 21 22 21 22 22 22 22 21 21 21 21 21 21 21 21 21 21 21
25 26 28 32 33 33 33 33 32 32 32 32 31 31 31 28 29 28 26 25 24 24 23 22 21 22 21 21 21 21 21 21 21 21 22 22 22 22 22 21 22 22 21 21 21 21 21 21 21
27 28 33 35 35 34 33 33 32 32 32 32 31 31 30 27 29 28 26 25 25 24 23 22 22 22 22 21 21 21 21 21 21 22 22 22 22 22 22 22 22 22 22 21 22 21 21 21 20
29 32 34 36 34 33 34 33 33 32 32 32 31 29 29 28 28 27 25 25 25 24 24 21 21 21 21 21 21 21 22 21 21 22 22 22 22 22 22 22 22 22 22 22 22 21 21 21 22
30 34 36 35 33 34 34 34 34 33 32 31 32 29 28 27 27 26 25 25 26 26 24 22 21 21 21 21 21 21 21 21 21 22 22 22 22 22 22 23 22 22 22 22 22 21 22 22 22
34 35 37 35 33 33 34 34 34 33 32 31 31 30 27 27 27 26 26 26 27 25 24 23 22 22 22 21 21 21 21 21 22 22 22 22 22 23 23 23 22 22 22 21 21 22 22 22 22
34 36 36 36 34 34 33 34 33 33 32 32 32 30 28 28 27 27 27 27 27 26 24 24 23 22 21 21 21 21 21 21 21 22 22 22 22 23 23 22 22 22 21 21 21 22 22 22 22
35 37 36 37 35 34 34 34 34 33 32 33 33 29 28 28 27 27 27 27 27 26 24 24 24 23 23 22 21 21 21 21 22 22 22 22 23 23 23 23 22 23 22 22 22 23 23 23 23
36 37 36 36 36 34 34 33 33 34 31 32 32 32 30 27 27 27 27 27 26 25 25 25 24 24 24 24 22 21 21 22 22 22 23 23 25 24 24 24 23 23 23 23 23 23 23 23 23
36 37 37 38 38 36 35 35 33 33 32 31 31 32 29 27 27 28 28 27 27 26 25 26 26 25 24 25 23 23 24 24 24 24 24 24 25 24 23 23 23 23 23 23 24 24 24 24 26
37 37 38 37 38 37 35 35 34 33 32 33 31 30 29 28 28 28 28 28 27 26 26 26 26 25 25 25 24 25 25 25 24 23 23 24 24 24 25 25 25 25 25 26 25 25 25 25 25
36 37 38 38 37 37 36 36 34 33 34 34 33 31 30 30 30 29 29 28 27 26 26 26 25 24 24 25 24 25 25 25 25 25 23 23 24 24 24 25 25 23 25 24 25 26 24 25 25
37 37 38 38 37 37 37 35 35 34 33 34 32 31 30 31 30 30 29 28 27 26 26 25 25 24 24 24 25 25 25 25 25 25 24 24 25 25 24 24 24 24 24 25 24 25 25 25 25
38 38 37 37 37 37 35 35 34 34 33 33 32 31 31 31 30 30 29 29 28 27 26 26 25 24 23 24 24 24 24 25 25 25 25 23 24 25 23 24 25 24 24 25 23 23 23 23 24
38 36 36 36 36 36 36 34 34 34 33 32 32 31 32 31 30 30 29 28 27 27 27 26 25 24 24 24 24 24 25 25 25 25 24 24 23 23 23 24 24 25 25 23 23 23 24 24 25
37 38 37 36 36 35 36 35 35 34 33 32 32 31 31 31 31 30 29 28 28 27 27 26 26 25 24 24 24 24 25 25 25 24 24 24 23 23 23 23 24 25 24 24 23 23 25 25 25
37 37 37 35 36 34 35 36 36 35 34 33 32 32 32 31 31 30 29 28 28 27 27 26 26 26 25 24 24 24 24 23 25 25 24 24 24 24 23 23 24 23 24 23 24 25 24 24 25
37 37 38 37 35 35 35 36 35 35 35 34 33 33 32 32 32 30 30 29 28 28 26 26 26 25 25 25 24 23 23 23 24 25 24 24 24 24 24 24 24 23 24 24 24 23 23 23 24
39 38 38 38 37 36 36 36 36 34 35 35 35 33 33 33 33 31 30 29 29 28 27 26 25 25 24 25 25 26 25 24 25 25 24 24 23 23 24 25 24 23 23 24 23 23 24 24 24
38 38 38 38 36 36 37 36 36 36 34 35 35 34 33 34 33 32 31 30 29 28 27 26 25 25 24 25 25 26 26 27 27 26 25 24 24 24 23 24 24 24 25 22 22 22 23 24 23
37 37 38 38 36 36 37 36 36 37 36 35 35 35 35 34 34 33 31 30 30 29 27 27 25 25 25 25 25 25 25 25 25 26 25 25 24 24 23 23 24 23 23 25 23 22 22 24 23
37 38 38 38 36 35 36 36 38 38 36 35 35 35 35 35 34 34 33 31 30 29 28 27 26 25 25 25 26 25 26 27 28 27 26 25 24 24 23 23 23 22 24 23 23 22 22 21 24
37 39 38 38 37 37 36 35 38 38 37 37 36 36 36 36 35 35 34 32 31 30 29 28 26 25 25 25 25 25 25 27 27 26 25 24 24 23 24 23 22 22 23 22 22 21 21 22 22
38 37 37 38 37 35 37 36 37 38 37 38 38 37 36 36 36 35 34 33 32 31 30 29 27 25 25 25 24 25 26 26 27 26 25 26 25 24 23 23 22 22 23 21 21 21 20 20 21
36 36 34 34 35 35 38 36 37 39 40 39 40 39 38 37 37 36 35 34 32 31 30 30 28 26 25 25 25 24 25 25 25 25 25 26 26 25 23 22 21 22 21 21 21 20 21 20 21
36 37 35 33 34 35 37 35 37 39 40 40 41 40 40 38 37 36 35 34 33 32 31 29 28 26 26 26 25 25 24 25 25 25 26 26 26 25 24 21 22 22 21 21 20 21 21 21 20
36 36 38 37 37 36 37 37 38 39 39 39 40 40 39 39 38 37 36 34 33 32 31 29 28 26 26 26 25 25 24 24 26 25 24 25 25 25 23 22 21 21 21 21 20 21 21 21 20
37 37 36 37 34 34 36 37 37 38 38 39 40 40 41 40 39 38 37 36 34 33 31 29 28 27 27 27 26 26 25 24 25 24 23 24 23 23 22 21 21 21 20 20 20 21 21 20 21
35 35 37 37 37 35 35 36 39 38 39 40 41 41 42 41 40 39 37 36 34 33 32 30 29 28 27 27 26 26 26 25 24 24 23 23 21 21 21 21 21 21 20 20 20 20 21 20 20
37 35 36 35 34 36 36 37 41 40 40 40 41 41 42 41 41 40 38 36 35 33 33 32 30 29 28 28 26 26 26 25 23 23 22 22 21 22 22 21 22 21 20 20 20 20 21 20 20

GFSSGP_925_temp_027.txt.gz
Temp
23 23 25 25 27 32 33 32 33 31 31 32 33 32 31 30 29 24 22 22 23 23 22 22 21 21 21 21 21 22 21 21 21 22 21 21 21 21 21 21 21 21 21 21 21 21 21 21 21
26 27 30 30 29 28 32 34 31 31 33 32 33 32 31 30 29 26 24 24 25 25 24 23 21 22 21 21 21 22 21 22 21 22 21 21 21 21 21 21 21 21 21 21 21 21 21 21 21
28 29 32 32 30 34 34 33 34 35 35 34 33 34 32 30 30 28 26 26 25 25 25 22 22 22 21 21 21 21 21 21 22 21 21 21 21 21 21 21 21 21 21 21 21 21 21 21 21
31 32 34 36 37 37 36 35 36 35 35 35 34 31 33 32 29 28 26 25 24 24 24 22 22 22 21 21 21 21 21 21 21 21 22 21 21 21 21 21 21 21 21 21 21 21 21 21 21
33 35 37 37 36 37 36 37 36 34 35 35 34 31 31 31 30 29 26 26 26 25 24 22 22 22 22 21 21 21 21 21 22 22 21 21 21 21 21 21 21 21 21 21 21 21 21 22 21
36 38 39 37 36 37 37 37 37 36 35 34 33 31 30 30 30 29 28 28 27 27 26 23 21 21 21 21 21 21 21 22 22 21 21 21 22 22 22 22 22 22 21 21 21 21 22 22 22
35 37 39 38 36 36 36 38 37 36 35 34 34 31 31 32 30 30 29 28 28 28 26 24 23 22 21 21 21 21 21 21 21 21 21 22 22 23 23 23 23 23 22 22 22 22 23 23 23
38 39 39 39 38 36 37 38 37 37 36 36 35 31 31 32 31 30 29 28 28 27 26 25 24 24 23 22 21 21 21 21 21 21 22 23 24 24 24 23 23 23 23 23 23 23 23 23 24
39 35 37 39 38 37 37 37 37 37 35 35 36 34 33 31 31 31 30 28 27 26 27 26 24 25 25 24 23 22 21 21 21 22 23 24 24 25 24 24 24 24 24 24 24 24 24 24 24
38 31 39 40 40 38 38 37 37 36 35 34 35 34 32 31 31 32 32 29 29 27 26 27 26 27 26 27 23 24 24 24 24 25 23 24 27 26 25 25 25 25 25 24 24 25 25 25 25
39 32 39 40 40 39 38 38 37 36 35 35 34 33 32 31 31 31 31 31 30 27 28 29 28 27 27 27 25 26 26 27 26 25 25 26 26 26 27 26 26 25 25 25 25 25 25 25 26
38 39 40 40 40 40 38 38 37 37 37 37 35 34 33 32 33 32 32 31 30 29 29 29 28 27 27 27 27 28 28 27 27 26 24 25 25 26 26 26 25 26 26 26 26 26 26 25 25
39 40 40 40 40 40 39 38 37 37 38 37 36 34 33 33 33 32 32 31 30 29 29 29 27 26 26 26 27 28 28 27 28 27 26 26 27 26 25 25 26 26 26 25 25 26 25 26 25
40 40 40 40 40 40 39 38 37 37 37 36 35 34 34 34 33 33 32 31 30 29 29 28 27 26 25 26 26 26 27 28 27 28 27 25 25 26 25 25 26 25 26 26 25 25 25 25 25
41 39 39 39 40 39 39 37 36 37 37 36 35 34 34 34 34 33 32 31 30 29 29 28 27 27 25 25 25 25 27 27 28 27 27 26 25 25 24 25 26 26 26 25 24 24 25 25 26
39 39 39 40 40 39 38 37 37 37 37 36 35 35 34 34 34 33 32 31 31 30 29 28 28 28 26 26 26 26 27 27 27 28 26 25 24 24 24 24 25 26 26 25 25 25 25 27 26
39 38 39 38 40 39 38 28 38 38 37 36 36 35 35 34 34 33 32 31 31 30 29 28 28 28 27 26 26 26 27 27 27 27 27 26 25 25 24 24 25 25 25 25 24 24 26 26 26
38 38 40 38 39 38 38 38 38 38 37 37 36 36 35 35 34 33 33 32 31 30 29 28 28 28 27 26 25 26 26 25 26 27 27 25 25 25 25 25 25 25 25 25 23 24 24 24 26
40 40 39 40 40 39 38 38 38 38 38 37 37 36 36 35 35 34 33 32 31 30 29 28 27 27 27 26 27 27 27 26 26 26 25 26 24 24 25 25 25 25 25 23 24 24 25 25 25
40 40 40 41 40 39 39 39 39 39 38 38 38 37 36 36 36 34 33 32 32 30 29 28 27 27 26 27 27 28 28 29 28 28 27 26 26 25 25 25 26 25 24 24 24 23 24 26 25
39 40 40 40 40 40 39 38 39 40 39 38 38 39 38 37 36 35 34 33 32 31 30 28 27 26 26 27 27 27 27 27 28 28 28 28 26 26 24 25 25 24 25 26 24 24 23 25 25
38 40 40 41 37 37 39 37 39 39 39 39 38 38 39 38 37 37 35 33 33 32 30 29 27 26 26 26 27 28 28 29 29 29 29 28 26 26 25 25 25 24 25 25 24 24 23 23 25
39 41 40 40 39 38 39 38 39 40 39 39 39 39 39 39 38 37 37 35 33 32 31 30 28 26 26 26 26 27 27 29 29 29 28 26 26 25 26 25 25 24 24 23 23 23 22 23 24
40 40 40 40 40 37 39 37 39 37 40 40 41 40 40 40 39 38 37 36 34 33 32 31 28 27 26 26 25 26 28 27 29 29 28 27 27 25 25 25 24 23 24 23 23 22 22 22 22
38 38 37 37 37 37 38 38 35 41 41 41 41 41 41 40 40 39 38 37 35 34 33 32 30 27 26 26 26 25 26 27 27 27 27 28 28 28 25 24 23 22 22 23 22 21 22 22 22
38 38 37 34 36 38 40 38 40 42 42 42 42 43 42 41 40 39 38 37 36 34 33 32 31 28 27 26 26 26 25 26 27 27 28 28 29 28 25 23 22 23 22 22 22 22 22 22 22
38 38 40 38 39 38 40 40 41 41 41 42 41 42 42 42 41 40 39 37 36 35 33 32 31 29 27 27 26 26 26 26 27 27 26 27 28 28 24 23 23 23 22 22 22 21 22 21 22
38 40 38 39 36 36 39 39 39 40 40 41 41 41 42 42 42 41 40 38 37 35 33 32 31 29 28 27 27 26 26 25 26 27 27 27 27 27 25 23 22 22 22 22 21 22 22 21 22
37 39 39 39 39 37 37 39 42 40 40 40 41 42 43 43 43 42 41 39 37 36 35 33 31 30 28 28 28 27 27 26 25 26 26 26 26 25 24 22 22 22 22 21 21 21 22 22 21
38 37 38 39 36 38 39 39 43 42 42 41 42 43 43 43 44 43 42 41 39 37 36 34 33 31 29 29 28 27 27 27 26 26 26 25 24 23 23 22 22 22 22 21 21 21 22 22 21

GFSSGP_925_temp_030.txt.gz
Temp
23 22 24 23 24 26 28 30 31 31 32 33 27 25 26 24 28 24 23 22 22 21 20 20 21 21 21 22 21 22 22 22 21 22 22 21 21 21 22 21 21 21 21 21 21 21 21 21 21
24 25 23 23 25 26 31 32 28 32 33 33 32 31 30 27 27 25 24 24 23 23 22 21 21 21 22 22 21 22 21 21 22 22 22 22 21 21 21 21 21 21 21 21 21 21 21 21 21
27 28 22 23 31 27 32 33 32 34 35 32 30 32 30 27 28 27 25 25 25 25 23 22 22 22 22 21 21 22 21 21 22 22 21 21 21 21 21 21 21 21 21 21 21 21 21 21 21
27 27 27 28 33 34 33 32 35 35 35 34 33 30 31 30 28 26 25 25 25 25 23 22 22 22 21 21 22 22 21 21 22 21 21 21 21 21 21 21 21 21 21 21 21 21 21 21 21
28 31 32 37 35 36 36 34 35 35 33 33 32 29 29 30 28 27 26 26 26 25 23 22 22 21 21 22 21 21 21 21 21 21 21 21 21 21 21 21 21 21 21 21 21 21 21 22 22
31 32 32 37 37 37 37 37 36 35 35 33 31 29 28 28 28 27 27 26 26 25 24 22 21 21 22 22 22 22 21 21 21 21 22 22 22 22 22 22 22 22 22 22 22 23 23 23 23
33 35 35 38 37 37 38 38 35 36 35 34 33 29 30 28 29 28 27 27 28 26 24 22 22 21 22 22 21 21 21 21 22 22 23 22 23 24 24 23 23 23 23 22 22 23 23 24 24
36 32 35 38 37 36 38 37 37 37 35 36 34 31 29 32 29 28 28 29 29 26 25 24 23 22 22 21 21 21 22 22 22 23 23 23 24 24 23 24 24 24 24 24 24 24 24 24 25
37 29 36 37 38 37 38 37 38 37 37 33 35 34 32 32 30 30 30 29 28 27 26 25 24 23 23 23 22 22 22 22 22 23 23 23 24 24 24 23 25 25 25 25 25 25 24 24 24
23 24 32 35 39 38 39 38 37 36 36 35 34 35 33 33 31 30 28 28 28 27 27 26 26 25 25 25 24 23 23 22 24 23 24 25 24 25 25 25 25 25 24 24 24 25 24 23 24
25 27 32 33 40 40 39 38 38 36 35 36 34 33 33 33 33 30 30 28 29 27 27 26 27 26 26 26 25 24 24 24 25 25 25 25 25 26 26 25 25 25 24 26 24 25 25 25 24
27 24 29 40 41 40 39 39 38 37 37 37 35 34 33 34 34 33 32 31 28 28 28 28 27 27 27 26 26 26 26 27 26 26 25 25 26 26 26 25 26 26 25 24 25 24 25 26 25
32 31 35 41 40 41 40 38 38 38 38 37 35 34 33 33 33 33 33 32 29 29 29 28 27 27 27 27 28 28 28 28 28 26 26 26 26 25 26 25 26 26 26 25 25 24 25 26 25
41 39 40 41 41 41 39 38 38 38 38 37 35 33 34 34 34 33 33 32 31 30 30 29 27 27 26 26 26 27 27 27 28 28 26 26 26 25 25 25 25 25 26 25 25 25 25 25 25
41 40 41 40 41 40 40 37 37 38 38 36 35 34 34 34 34 33 33 32 31 30 30 29 28 26 26 26 26 26 27 27 27 28 27 26 26 25 24 24 25 25 25 25 25 24 25 25 25
39 40 39 40 40 40 39 32 37 38 38 36 35 35 34 34 34 34 33 32 31 30 30 29 29 27 26 25 26 26 26 27 27 28 27 26 26 25 25 24 25 25 25 25 24 24 25 25 26
39 38 39 38 41 40 38 28 33 35 38 36 36 35 35 35 35 34 33 32 31 30 30 29 29 28 26 26 25 26 26 27 27 27 26 26 25 25 24 25 25 25 25 25 24 25 25 25 25
37 38 39 38 39 40 32 25 30 33 38 37 36 36 35 35 35 34 34 33 32 31 30 29 29 29 27 26 26 26 26 26 26 26 27 26 25 25 25 25 25 25 26 25 24 24 24 25 25
39 39 39 39 32 39 36 31 27 31 37 37 37 36 36 36 36 35 34 33 32 31 30 29 28 28 27 26 26 26 26 26 26 27 26 26 26 25 25 25 25 25 25 24 24 24 24 25 25
38 39 40 39 34 37 39 33 31 32 38 38 37 37 36 36 36 35 34 34 32 31 30 29 28 28 27 27 27 26 26 27 26 26 26 27 25 26 25 25 25 25 25 24 24 23 23 24 25
38 38 39 39 39 40 40 38 39 39 39 39 39 38 37 37 36 35 34 33 33 31 30 28 27 27 26 27 27 27 27 28 26 27 26 26 26 26 25 25 25 25 25 24 24 23 24 24 24
37 40 40 40 39 37 40 37 38 40 38 38 39 39 39 38 37 37 35 34 33 32 30 28 27 27 26 27 27 27 27 27 29 29 29 28 27 26 26 25 25 24 24 24 24 23 24 23 24
38 40 40 40 39 38 36 36 38 39 38 39 39 39 39 39 38 38 36 34 34 33 31 28 27 26 26 26 26 27 27 28 28 29 28 27 27 26 26 25 25 25 24 24 24 23 23 23 24
40 40 40 40 40 37 37 35 35 38 38 38 40 40 40 40 39 38 38 36 34 33 32 30 27 26 26 26 26 26 27 28 29 29 27 27 26 25 26 25 25 24 24 23 23 23 22 22 22
39 38 37 36 38 37 39 36 36 39 39 38 37 39 40 40 40 38 37 37 34 33 33 31 28 26 26 26 25 26 26 27 28 27 28 27 27 25 25 25 24 24 24 23 23 22 22 21 22
38 38 37 34 36 38 40 38 37 39 38 35 35 36 41 41 40 39 37 37 35 34 33 32 29 27 26 26 26 25 26 26 27 27 27 28 28 28 26 25 24 23 23 23 22 22 22 22 22
38 37 39 38 39 38 40 40 42 42 39 37 38 40 39 39 41 40 39 38 37 35 33 32 29 27 27 26 26 26 25 26 26 27 28 27 28 28 27 25 24 23 22 22 22 22 22 22 22
38 39 37 37 35 35 39 39 39 39 37 39 38 41 40 40 41 41 40 38 37 36 33 32 31 28 27 27 26 26 26 25 26 27 27 27 27 28 25 25 24 23 22 22 22 22 22 22 22
37 37 38 38 38 37 36 39 42 40 39 40 40 41 42 43 42 41 40 39 37 36 34 32 31 29 28 27 27 26 26 26 25 26 27 27 27 27 25 24 24 22 22 22 22 22 22 22 22
38 37 37 36 35 38 38 39 43 41 41 41 41 42 42 42 43 43 41 40 38 36 35 33 32 31 29 28 27 27 26 26 26 26 27 27 26 26 25 24 23 23 22 22 21 22 22 22 21

GFSSGP_925_temp_033.txt.gz
Temp
23 22 22 21 24 23 27 29 28 29 28 28 29 28 25 24 26 23 22 21 21 20 20 20 21 21 20 21 21 21 22 22 22 22 22 22 22 22 22 22 21 21 21 21 21 21 21 21 21
24 22 22 22 24 25 28 29 29 29 29 28 29 27 26 24 24 22 21 21 21 20 20 21 21 21 21 22 21 21 21 22 22 22 22 22 21 21 21 21 21 21 21 21 21 21 21 21 21
24 24 22 23 24 25 28 30 31 30 31 30 29 29 26 23 24 23 22 22 21 21 21 21 21 21 21 22 22 22 22 21 22 22 22 21 21 21 21 21 21 21 21 21 21 21 21 21 21
26 22 22 24 26 28 31 30 32 31 31 31 30 27 27 26 25 24 23 23 22 22 22 22 22 22 21 21 21 22 21 21 22 22 21 21 21 21 21 22 21 21 21 21 21 21 21 22 22
26 23 25 27 29 32 31 33 33 31 29 29 29 27 25 26 25 25 25 24 23 22 22 22 22 22 21 21 21 21 21 22 22 22 21 22 22 22 22 22 22 21 21 21 21 21 22 22 22
24 23 25 30 33 34 34 33 33 31 30 29 28 26 25 25 25 25 25 25 23 23 22 22 22 22 22 21 21 21 21 22 22 22 22 22 23 23 22 23 22 22 22 22 22 23 23 23 23
26 24 28 31 34 34 34 33 33 31 30 29 29 25 25 26 26 26 25 25 24 23 23 22 21 22 22 22 21 22 22 22 22 22 23 23 23 23 23 23 23 23 23 23 24 24 23 23 23
22 22 26 33 34 32 34 34 35 32 31 31 29 26 25 26 26 26 26 25 24 23 22 22 22 22 22 22 22 22 22 22 23 23 24 24 24 23 23 23 24 24 24 23 23 23 24 23 24
23 22 24 31 34 34 35 34 35 34 31 30 31 28 28 27 27 27 26 25 24 23 23 22 22 22 22 22 22 22 22 23 23 24 24 24 24 24 24 24 24 24 24 24 24 24 24 24 24
23 22 26 34 35 34 34 34 33 32 30 29 31 30 28 28 27 26 26 25 24 23 23 23 23 23 23 23 22 23 24 24 25 25 25 24 24 24 23 23 24 24 24 25 24 24 24 25 25
24 26 31 32 34 35 35 35 35 32 31 31 29 30 29 29 29 28 26 27 26 25 24 24 24 23 23 23 24 25 25 25 25 25 25 24 25 25 24 24 25 24 24 25 25 25 25 24 25
28 28 32 31 34 34 35 35 35 34 33 33 31 31 30 29 28 28 28 27 27 27 26 25 25 24 24 25 25 26 25 25 25 25 25 24 25 25 24 25 25 24 25 25 25 25 25 25 25
30 30 34 34 33 32 37 35 35 35 34 33 33 32 31 30 28 28 28 27 27 27 27 26 26 25 25 25 26 25 25 25 25 25 25 26 26 26 25 25 25 25 25 24 25 25 25 25 25
32 32 37 37 32 36 36 35 35 35 34 33 32 31 30 30 28 29 28 27 27 27 27 26 26 26 26 26 25 26 26 26 26 26 26 26 25 25 25 25 25 25 25 25 24 24 25 25 25
37 32 36 37 35 36 36 34 34 34 34 32 31 31 31 30 32 30 28 27 28 28 28 27 27 27 26 26 26 26 27 27 27 26 26 26 26 26 25 25 25 25 25 24 25 25 24 25 25
34 34 34 37 36 37 34 31 35 34 33 31 31 32 31 30 31 32 30 28 28 30 27 27 27 27 27 27 26 26 26 27 27 27 26 26 26 25 25 25 25 25 25 25 25 24 25 25 25
32 31 33 35 39 38 33 30 34 34 34 32 32 32 32 31 31 32 31 30 30 30 28 27 27 27 27 27 26 25 26 27 27 27 26 26 26 26 25 25 25 25 25 24 24 24 24 25 25
30 32 33 35 35 34 31 30 34 33 32 32 32 32 31 31 31 31 32 31 30 30 30 28 28 27 26 26 26 26 26 26 26 26 27 26 26 25 25 25 25 25 25 24 24 24 24 25 25
34 34 34 36 35 31 31 30 32 32 31 31 32 32 32 32 31 32 32 31 30 30 29 29 28 27 26 25 25 25 25 26 26 26 26 25 25 25 25 25 25 25 24 25 24 24 24 25 24
34 34 34 34 35 34 31 31 30 32 32 31 33 32 32 32 32 31 32 31 30 29 29 29 29 28 26 26 26 26 26 26 26 27 26 26 26 26 26 25 25 25 25 24 24 24 24 24 24
34 33 34 33 35 33 34 31 29 33 34 33 33 33 33 32 32 31 31 31 30 29 29 28 28 28 27 26 26 26 26 26 26 26 26 26 26 26 25 25 25 25 24 24 24 24 24 23 24
32 35 36 34 33 30 34 30 29 31 32 33 33 34 34 33 33 32 31 31 30 29 29 28 28 28 27 26 26 26 26 26 26 26 26 26 26 25 25 25 25 24 24 24 24 24 24 23 24
34 36 36 36 32 33 34 30 30 30 31 32 35 35 34 34 33 32 32 32 31 29 28 28 28 28 27 27 26 27 26 26 27 27 27 26 26 25 26 25 24 24 24 24 24 23 24 23 22
36 35 35 35 34 28 34 30 30 31 33 34 35 36 35 35 34 34 33 32 32 30 28 27 27 27 27 27 27 26 26 27 28 28 27 26 26 26 26 26 24 24 24 24 23 23 23 23 23
35 33 31 31 31 30 31 32 32 34 34 36 36 36 36 35 35 34 33 32 31 30 28 26 26 25 26 26 26 26 26 27 28 27 27 26 26 26 25 25 25 24 24 24 23 23 23 23 22
34 33 32 28 30 32 33 31 32 36 36 36 37 36 35 35 36 35 34 33 32 31 29 27 25 25 25 26 26 27 26 26 27 27 26 26 26 26 26 25 25 24 24 23 23 23 22 22 22
33 33 34 31 32 30 33 34 34 37 33 32 34 36 34 35 35 34 34 34 32 31 29 28 25 25 25 25 25 26 27 26 26 27 27 27 27 27 26 25 25 24 24 23 23 22 22 22 22
35 34 32 33 30 31 33 32 32 34 31 33 34 33 34 32 35 36 35 34 32 32 30 29 26 25 25 25 25 25 26 26 26 26 26 27 27 27 26 25 25 24 24 23 22 22 22 22 21
32 33 31 32 33 30 30 33 35 33 33 32 34 34 36 36 36 35 36 35 33 32 31 30 26 26 25 25 25 25 24 25 25 26 26 27 27 27 27 26 25 24 23 23 22 22 22 21 22
35 33 31 30 29 29 32 33 35 37 35 35 34 35 36 36 37 37 36 35 34 32 31 30 27 26 26 25 25 25 25 24 24 25 25 26 27 27 26 26 25 24 23 23 22 22 22 22 21

GFSSGP_925_temp_036.txt.gz
Temp
23 23 21 22 23 23 26 27 29 28 27 28 28 26 23 24 25 22 21 20 21 20 20 21 21 21 21 21 22 21 22 22 22 21 22 22 22 21 21 21 21 21 21 21 21 20 20 21 21
22 22 22 22 23 24 27 28 28 28 27 27 27 26 25 23 23 20 19 20 20 20 20 21 21 21 21 21 22 21 21 22 22 22 22 21 21 21 21 21 21 21 20 20 20 20 20 21 21
23 23 23 23 24 24 27 29 28 28 29 29 27 27 25 22 22 21 21 20 20 20 20 20 21 21 21 21 22 21 21 21 21 21 22 21 21 21 21 21 21 21 21 21 21 21 21 22 22
24 23 22 24 25 27 30 29 27 28 30 28 27 24 25 24 23 22 21 21 21 20 21 21 21 21 21 21 21 21 21 21 21 21 22 22 21 21 21 21 21 21 21 21 21 21 21 22 22
24 22 24 25 28 30 30 31 30 29 29 27 27 24 24 24 23 21 21 21 21 21 21 21 21 21 21 21 21 21 21 21 21 22 22 22 22 22 22 22 22 22 21 21 22 22 22 22 22
24 23 24 26 29 30 30 30 30 29 28 26 25 24 23 24 23 22 22 21 21 21 21 21 21 21 22 21 21 21 21 21 22 22 22 23 23 23 23 23 22 22 22 22 22 22 22 22 22
23 21 24 24 26 30 30 30 29 28 27 27 27 24 23 24 24 23 22 22 22 22 22 21 21 21 21 21 21 21 21 22 23 22 22 23 23 23 23 23 22 22 23 23 22 23 23 23 22
22 22 23 26 30 30 31 30 29 28 28 28 27 23 22 24 24 24 23 23 23 22 22 22 22 21 22 22 21 21 22 23 23 23 23 24 24 23 23 23 23 23 23 23 23 23 23 24 23
23 23 24 27 32 32 32 30 30 30 28 29 29 26 25 25 25 24 23 22 22 22 22 22 22 22 22 21 21 21 23 23 23 24 25 24 24 23 23 23 23 24 24 23 24 24 24 24 24
23 23 26 28 31 32 33 30 30 29 28 28 27 27 26 25 25 24 24 22 21 21 22 22 22 22 22 22 22 23 23 24 24 25 25 25 24 23 23 23 24 23 24 24 24 24 24 24 24
25 27 29 32 33 33 32 31 31 28 28 27 26 26 26 26 25 25 24 22 22 22 22 22 22 22 22 23 24 24 25 25 25 25 25 24 24 24 24 24 24 24 24 24 24 24 25 24 24
25 28 31 31 31 33 33 32 30 30 30 29 28 27 27 26 25 25 24 23 23 22 22 23 23 23 23 24 24 25 25 25 25 25 25 24 24 24 25 25 24 24 24 24 25 24 24 24 24
28 30 32 33 33 33 34 33 31 31 31 30 28 27 27 26 26 25 25 24 23 23 23 24 24 24 24 24 24 24 24 25 25 25 25 24 24 25 24 25 24 24 25 24 25 24 24 24 24
30 30 33 33 32 34 34 33 32 31 31 30 28 27 27 27 27 26 26 25 24 24 24 24 24 24 24 24 24 25 25 25 25 25 25 24 25 25 25 25 24 24 24 24 25 24 24 24 25
32 31 32 34 34 32 34 31 30 31 31 29 28 28 28 28 28 27 26 26 25 25 25 25 25 25 25 24 25 25 25 25 25 26 25 25 25 25 25 25 25 25 25 25 24 24 24 25 25
32 30 29 33 33 34 33 29 31 31 31 29 28 29 29 28 27 27 27 26 26 25 25 25 25 25 25 25 25 25 26 25 26 26 26 25 25 25 25 25 25 25 25 25 24 24 24 25 25
28 28 29 31 35 34 32 29 31 31 31 30 30 30 29 27 27 28 27 27 26 26 26 26 25 26 26 25 26 26 26 26 26 26 26 25 25 25 25 25 25 24 24 24 24 24 24 25 24
27 29 31 33 34 33 32 30 31 31 30 30 30 30 30 29 29 28 27 27 27 27 26 27 26 26 26 26 26 26 26 26 26 26 26 26 25 25 25 25 25 24 25 24 24 24 24 24 24
29 29 29 32 33 33 31 30 31 31 30 29 29 29 29 30 30 29 27 27 27 26 27 27 25 26 27 26 26 25 26 26 25 25 26 25 25 25 25 25 24 24 24 24 23 24 24 24 24
30 30 30 33 34 32 30 31 33 30 30 30 30 29 30 30 29 29 28 27 27 27 26 26 26 27 26 26 26 26 26 26 26 25 26 26 26 26 25 25 25 25 24 24 24 24 24 24 24
30 30 30 32 33 32 31 30 30 31 30 30 30 30 30 30 29 29 29 28 28 27 26 26 26 27 26 26 26 25 25 25 25 25 26 26 26 27 25 25 25 24 24 24 24 24 24 24 23
28 32 32 32 31 31 32 30 28 31 29 29 30 30 31 30 31 30 30 28 28 27 27 27 27 27 26 26 25 25 25 24 25 26 26 26 25 25 25 25 25 25 24 24 24 24 23 23 23
30 32 31 32 30 30 31 27 28 28 30 29 30 31 31 31 31 30 30 30 29 28 27 27 27 27 27 26 25 25 25 26 26 26 25 26 26 25 25 25 24 25 24 24 23 24 24 23 23
32 31 31 31 27 28 30 30 27 28 29 31 32 31 32 32 31 31 31 31 29 28 27 26 26 26 27 26 26 26 25 26 26 26 26 26 26 25 25 25 24 24 24 23 24 23 23 23 23
31 28 26 27 27 28 28 28 30 32 31 31 33 32 33 33 32 31 31 30 30 28 27 26 26 25 26 26 26 26 26 26 26 26 26 26 25 25 25 24 24 24 24 24 24 23 23 23 22
28 30 28 26 26 27 28 29 30 32 34 33 34 34 34 33 33 32 31 31 30 29 27 26 25 25 25 25 25 26 26 27 26 26 26 26 27 26 25 25 24 25 24 24 23 23 23 23 22
29 29 29 26 27 26 28 29 30 32 32 33 34 35 34 34 33 33 32 31 31 29 27 26 25 25 25 25 25 25 26 26 26 26 27 26 26 26 26 25 25 25 24 24 24 23 23 23 22
32 28 30 24 28 28 28 29 29 31 32 32 33 34 35 34 34 34 33 32 31 30 28 27 26 26 25 25 25 25 25 25 26 26 26 26 26 26 26 25 25 25 24 24 23 23 23 22 22
30 30 28 28 27 29 28 31 29 31 30 31 33 35 35 33 33 34 34 33 32 31 29 26 26 26 25 25 24 24 24 25 25 26 26 26 26 26 26 25 25 25 24 24 23 23 23 22 22
32 31 29 30 26 25 31 31 34 32 31 31 33 35 35 33 34 34 35 34 32 30 30 27 26 26 25 25 25 24 24 24 24 25 26 26 26 26 26 26 25 25 24 24 23 23 23 22 22

GFSSGP_925_temp_042.txt.gz
Temp
20 20 21 21 23 23 25 27 27 27 25 24 26 25 23 22 23 23 19 20 20 20 20 21 21 21 21 21 21 21 22 22 22 21 21 21 21 21 21 21 21 21 20 20 20 20 21 21 21
21 21 21 22 24 24 26 25 26 25 25 25 25 24 23 22 22 19 19 20 20 20 20 21 21 21 21 21 22 21 21 21 21 21 21 21 21 21 20 20 20 20 20 20 20 20 20 20 21
22 22 21 22 24 24 25 26 24 25 26 26 24 24 23 21 21 20 20 20 20 20 21 21 21 21 21 21 21 21 21 21 21 21 21 21 21 21 20 20 20 20 21 21 20 20 20 20 21
22 22 21 24 25 26 26 26 26 25 26 25 24 22 22 22 21 20 20 20 20 20 21 21 21 21 21 21 21 21 21 21 21 21 21 22 21 21 20 20 20 21 21 20 20 20 21 21 21
23 22 23 24 25 26 27 27 26 26 25 25 25 22 21 21 21 19 20 20 20 20 21 20 21 21 21 21 21 21 21 21 22 22 22 21 21 21 21 21 21 21 21 21 21 21 21 21 22
22 22 24 24 26 26 28 27 27 26 24 24 23 22 21 20 19 19 20 20 20 21 21 20 21 21 21 21 21 21 21 22 22 22 21 21 21 21 21 21 21 21 21 21 22 22 22 22 22
22 23 24 24 25 26 28 27 25 25 25 24 24 22 21 20 20 19 20 20 20 21 21 21 21 20 21 21 21 21 22 22 22 21 22 22 22 22 22 22 22 21 22 22 22 23 23 23 22
22 23 23 24 25 26 28 28 26 26 25 26 24 21 21 20 20 20 20 20 20 21 21 21 21 21 21 21 20 21 22 22 22 22 22 22 22 22 22 22 22 22 22 22 23 23 23 23 23
23 23 23 25 25 28 28 27 27 26 25 26 25 23 23 20 20 19 19 19 20 20 21 21 21 21 21 21 21 21 22 22 22 22 23 22 23 23 23 23 23 23 23 23 23 23 23 23 23
22 22 25 27 28 27 28 27 27 26 25 25 24 23 21 21 20 20 20 20 19 20 21 21 21 21 21 21 21 22 22 22 22 23 23 23 23 23 23 23 23 23 23 23 23 23 23 23 24
22 24 27 29 29 28 28 27 27 26 25 24 22 22 22 21 21 20 20 19 19 20 20 21 21 21 21 21 21 22 22 23 23 23 23 23 23 23 23 24 24 23 23 23 23 23 23 23 24
23 24 26 27 30 29 28 28 27 27 27 26 24 23 22 21 21 20 20 20 20 20 21 21 21 21 21 21 22 22 23 23 23 23 23 23 24 24 24 24 24 24 24 24 24 24 24 24 24
24 26 28 29 30 29 29 29 28 27 27 26 24 23 22 22 22 21 21 20 20 20 21 21 21 21 22 22 22 23 23 24 24 23 24 24 23 24 24 24 24 24 24 24 24 24 24 24 23
27 27 28 30 30 30 29 28 28 27 27 25 24 23 23 23 22 22 21 21 20 21 21 22 22 22 22 22 23 24 24 24 24 24 24 24 24 24 24 24 24 24 24 24 24 24 24 23 24
28 27 28 28 29 29 29 28 27 28 26 25 24 24 23 23 23 23 22 21 21 21 22 21 22 22 22 23 23 24 24 24 24 25 24 24 24 24 24 24 24 24 24 24 24 24 24 24 24
28 27 26 29 29 29 29 27 28 27 26 25 25 24 24 24 24 23 23 22 22 21 21 22 22 22 23 23 24 24 24 24 25 24 24 24 24 24 24 24 24 24 24 24 23 23 23 23 24
24 25 26 29 30 30 29 28 28 27 27 25 25 25 24 24 24 24 24 23 23 22 23 22 22 22 23 23 24 24 24 24 25 24 24 25 25 24 24 24 24 24 24 24 23 23 23 24 24
24 26 27 29 31 29 28 27 27 27 26 26 25 25 25 24 24 24 24 23 23 23 23 23 23 23 24 24 24 24 23 24 24 24 25 26 26 25 24 24 24 24 24 23 23 23 23 23 24
26 27 28 29 30 29 28 27 26 27 27 26 26 25 25 25 25 25 24 24 23 23 23 23 23 23 23 23 23 22 23 24 24 24 26 26 26 25 24 24 24 24 24 23 22 23 23 23 23
27 27 27 27 29 30 28 28 26 27 27 26 26 26 26 25 25 25 25 24 24 23 24 23 24 24 23 24 24 23 24 24 24 25 25 26 26 25 25 24 24 24 24 23 23 23 23 23 22
25 26 26 28 29 29 28 27 25 27 27 27 27 27 26 26 26 25 25 25 24 23 23 23 25 24 24 24 23 23 23 23 23 24 24 25 25 25 25 26 24 24 24 23 23 23 23 23 22
22 26 27 28 28 26 28 25 25 26 26 27 27 27 27 27 27 26 26 25 25 24 24 23 23 24 24 24 23 23 23 22 23 24 25 25 25 25 25 25 24 24 24 24 23 23 23 23 23
26 27 27 28 26 27 28 25 25 26 26 27 27 27 28 28 28 27 26 26 26 25 24 24 24 24 24 24 23 23 23 24 25 25 25 25 25 25 25 25 24 24 24 24 23 23 23 23 23
27 27 24 22 23 24 26 25 25 24 27 27 28 28 28 28 28 28 27 26 26 26 25 24 23 24 24 23 24 23 23 23 24 25 25 25 25 25 25 25 24 24 24 24 23 23 23 23 23
26 24 22 23 22 25 25 24 29 27 29 29 29 29 29 29 29 28 28 27 26 26 25 24 23 23 24 23 23 23 24 24 25 25 26 25 25 24 25 24 24 24 24 24 23 23 23 23 23
25 23 20 22 21 27 23 25 27 30 29 30 30 30 30 29 29 29 28 28 27 26 25 24 23 23 23 23 23 23 23 24 25 25 26 26 26 26 25 25 25 24 24 24 23 23 23 23 22
23 24 24 22 22 22 22 24 29 29 29 28 30 31 30 30 30 29 29 29 28 27 26 25 24 23 23 23 23 23 23 23 24 25 26 26 26 26 26 25 25 25 24 24 24 23 23 23 22
25 25 25 20 24 23 23 25 26 27 28 28 27 28 30 30 30 30 30 29 29 28 26 26 25 24 24 23 23 23 24 24 25 25 26 26 26 26 26 26 25 25 24 24 24 23 23 23 22
24 24 23 24 20 23 22 24 24 27 28 31 32 30 30 29 29 30 30 30 29 29 27 26 25 24 24 23 23 23 23 23 24 24 26 26 26 26 26 26 25 25 24 24 23 23 23 23 22
29 27 22 25 22 21 21 25 27 28 29 27 28 29 28 28 29 30 30 30 29 29 28 26 26 25 24 24 23 23 23 23 23 24 25 26 26 26 26 26 25 25 25 25 24 23 23 23 22

GFSSGP_925_temp_045.txt.gz
Temp
20 20 20 21 23 24 27 28 29 28 28 27 28 27 27 23 24 23 19 20 20 20 20 21 21 21 21 21 22 22 22 22 22 22 21 21 21 21 21 21 21 21 21 20 20 20 20 20 20
21 20 21 23 25 26 28 28 27 28 26 27 27 26 26 23 22 20 20 20 20 21 20 21 21 21 21 21 21 21 21 22 22 21 21 21 21 20 20 20 20 20 20 20 20 20 21 22 22
21 22 22 23 26 27 28 28 27 27 28 27 26 26 25 23 22 21 21 21 21 21 21 21 21 21 21 21 21 21 21 21 21 21 21 21 20 20 20 20 21 21 21 20 20 20 21 21 22
22 23 23 26 28 29 29 28 28 27 27 27 26 24 24 23 22 21 20 21 21 21 21 21 21 21 21 21 21 21 21 21 21 21 21 21 20 20 20 21 21 21 21 20 20 21 21 21 22
23 24 26 27 28 29 30 29 28 28 27 26 26 23 21 21 21 21 21 21 22 21 21 21 21 21 21 21 21 21 21 21 21 21 21 21 21 21 20 21 21 21 21 21 21 21 21 22 22
25 24 27 29 29 29 29 29 29 28 26 25 25 25 22 21 21 21 21 22 22 22 22 22 21 21 21 21 21 21 21 21 21 21 21 21 21 21 21 21 21 21 21 21 22 22 22 22 22
25 25 27 27 28 29 30 30 29 28 27 26 26 24 21 22 22 21 21 21 22 22 21 22 22 21 21 21 21 21 21 21 21 21 22 22 22 22 22 22 22 21 22 22 22 22 22 22 22
25 26 28 28 29 30 30 30 29 29 27 27 27 23 22 22 22 21 21 21 22 21 21 21 21 22 21 21 21 21 21 21 21 22 22 22 22 22 22 22 22 22 22 23 23 23 23 22 22
25 27 28 29 29 30 30 29 29 29 27 27 27 26 25 22 22 22 22 22 21 21 22 22 21 21 21 21 21 21 21 22 22 22 22 22 22 22 22 22 23 22 23 23 23 23 23 23 23
26 26 29 30 30 31 30 31 29 28 28 27 25 25 23 22 22 22 22 22 22 22 21 22 22 21 21 21 21 21 21 22 22 21 22 22 22 22 23 23 23 23 23 23 23 23 23 23 23
26 28 30 31 31 32 31 30 30 29 28 28 25 24 23 23 22 22 22 22 23 22 22 22 21 21 21 21 21 21 22 22 22 22 23 22 22 23 22 23 23 23 23 23 23 23 23 24 23
26 27 29 31 32 32 31 31 30 30 30 30 27 25 24 24 24 23 23 23 22 22 22 22 21 21 21 21 21 22 22 21 22 22 23 23 22 23 23 23 24 24 24 23 24 23 24 24 24
26 28 29 30 31 32 32 29 31 29 29 29 26 25 25 25 24 24 23 23 22 22 22 21 21 21 21 20 21 21 21 22 22 22 23 23 23 23 23 24 24 24 24 23 23 23 23 24 23
29 29 30 31 32 32 31 31 30 30 28 27 26 25 25 25 25 24 23 23 22 22 22 22 21 21 20 20 20 21 21 21 22 22 23 24 24 24 23 24 24 24 24 23 23 23 23 23 23
30 29 30 31 32 32 32 30 30 30 28 26 26 26 26 26 25 24 24 23 23 22 22 22 21 21 20 20 21 21 21 22 22 22 24 24 24 24 24 23 23 23 24 24 23 23 23 23 24
30 30 31 32 32 32 32 32 31 29 28 27 26 26 26 26 25 24 24 24 23 23 22 22 22 21 21 21 21 21 21 22 22 22 23 24 24 24 24 23 23 23 23 23 23 23 23 23 23
29 32 31 32 32 32 32 33 33 30 30 28 27 27 26 26 25 25 24 24 24 23 22 22 22 22 21 21 21 22 22 22 22 22 22 24 24 24 24 24 23 24 22 22 23 22 22 23 23
29 29 31 32 34 33 32 32 31 30 30 29 28 27 27 27 27 26 25 25 24 23 22 22 22 21 21 21 21 21 21 22 22 23 23 25 25 25 24 24 24 24 22 23 23 22 22 22 23
29 30 31 33 33 33 33 33 33 31 31 30 29 28 28 28 28 26 25 25 24 24 23 22 22 21 21 21 22 22 23 22 22 23 24 25 25 25 25 24 24 24 23 23 23 22 22 22 22
28 29 30 31 32 32 33 33 32 31 30 30 30 28 29 29 28 27 26 25 25 24 23 22 22 22 21 22 22 23 23 23 23 23 24 25 25 26 25 25 24 24 23 23 23 22 22 22 21
28 29 31 31 31 32 32 33 30 30 30 30 30 30 29 29 29 28 27 26 25 25 23 23 22 23 23 22 22 22 22 22 23 23 23 24 25 25 26 25 24 23 23 23 23 23 23 23 21
28 30 30 30 30 31 32 32 30 31 29 29 30 30 30 30 29 29 28 27 26 25 24 23 22 22 23 23 22 22 24 24 24 24 24 24 25 25 25 25 24 24 23 22 22 23 23 23 23
29 30 30 30 30 31 32 31 34 31 30 30 30 30 31 31 30 30 29 28 27 26 25 24 23 22 22 22 23 22 23 24 25 24 23 23 23 25 25 25 24 24 23 23 23 23 23 22 23
30 30 29 29 31 29 31 31 33 32 31 32 32 31 31 32 31 31 29 29 28 27 26 25 23 22 22 22 22 23 23 24 24 23 24 24 24 23 24 24 24 24 23 24 23 23 23 23 23
30 30 29 28 28 29 33 30 32 34 34 34 33 32 32 31 31 31 31 30 28 27 26 25 23 23 22 22 22 23 23 23 23 23 24 25 24 24 23 24 25 23 24 24 24 24 23 23 23
29 30 30 28 30 31 30 30 32 34 35 34 35 35 33 32 32 31 31 30 28 27 26 25 24 23 23 23 23 23 23 23 23 24 25 25 25 25 24 25 25 25 24 24 24 23 23 22 22
29 29 32 31 27 29 32 32 32 33 35 35 34 34 34 33 32 32 31 31 30 28 27 26 25 23 23 23 23 22 23 23 24 24 23 24 24 25 24 26 25 25 24 24 24 23 23 22 22
30 31 27 30 28 28 31 30 33 32 34 34 34 34 34 34 33 33 32 31 30 29 27 26 25 24 24 23 23 23 23 23 23 23 23 24 24 25 24 25 25 25 24 23 24 22 23 23 21
28 29 30 31 30 30 30 32 32 33 34 34 35 35 35 35 34 34 33 32 31 30 28 27 25 25 24 23 23 23 23 23 23 23 23 24 25 26 25 25 25 25 24 24 23 23 22 23 21
31 30 30 29 27 29 31 32 32 33 34 34 35 35 35 35 35 34 34 33 32 30 29 28 27 25 25 24 24 23 23 23 23 23 23 24 24 26 26 26 25 23 24 24 23 22 22 22 21

GFSSGP_925_temp_048.txt.gz
Temp
20 22 22 22 24 27 30 31 33 32 31 32 31 31 28 27 25 25 21 20 20 22 21 21 21 21 21 21 21 22 21 21 21 21 21 21 21 21 21 21 21 21 21 21 21 20 20 20 21
21 21 23 28 27 30 31 33 32 32 31 31 31 30 30 26 24 22 22 20 21 22 22 21 21 21 21 21 22 22 21 21 21 21 21 21 21 21 21 20 21 21 20 21 21 20 20 21 21
22 23 28 26 28 31 32 33 32 31 31 31 30 31 29 25 25 24 22 21 24 23 22 21 21 21 21 21 21 21 21 21 21 21 21 21 21 21 21 20 20 20 20 21 20 21 21 22 22
24 24 27 26 33 33 33 33 32 31 31 31 31 28 27 26 25 25 23 24 24 24 24 21 22 21 21 21 21 21 21 21 21 21 21 21 21 21 21 21 21 21 21 21 21 21 22 22 22
25 29 30 31 33 33 34 33 33 32 31 30 30 27 24 24 24 24 23 25 25 25 24 22 21 21 21 21 21 21 21 21 21 21 21 21 21 21 21 21 21 21 21 21 21 22 22 22 22
29 30 32 34 33 34 33 33 33 32 31 29 29 25 23 24 24 24 24 25 26 26 25 23 21 21 21 21 21 21 21 21 21 21 21 21 21 21 21 21 21 21 21 22 22 22 22 22 22
29 30 33 33 33 34 33 34 33 32 31 30 30 27 25 25 24 24 25 26 26 26 26 24 23 22 21 21 21 21 21 21 21 21 21 21 22 22 22 22 21 22 22 22 22 22 22 22 22
29 30 33 35 35 34 34 34 33 33 31 31 31 27 25 25 25 25 25 26 26 26 25 24 24 23 23 22 21 21 21 21 21 22 22 22 23 23 23 23 23 22 23 23 22 22 22 22 22
30 31 34 35 35 35 34 33 33 33 31 31 30 30 28 25 25 25 26 25 25 26 26 25 24 24 24 24 22 22 21 21 22 23 23 23 25 24 25 23 23 23 23 23 23 23 23 23 23
30 33 35 35 35 36 35 35 33 33 31 30 30 30 27 26 25 26 26 25 24 26 26 26 25 25 24 25 23 23 24 24 24 24 23 25 24 24 24 24 23 23 23 24 24 24 24 25 25
31 33 35 35 35 36 35 35 34 33 32 32 30 28 28 26 25 27 27 26 26 26 26 26 25 24 24 25 24 25 25 25 24 23 23 24 24 24 25 25 25 25 24 25 25 25 26 26 26
31 32 34 35 35 35 35 36 34 34 34 34 31 29 29 28 28 28 28 27 27 26 26 26 25 24 24 25 24 25 25 25 25 25 23 23 24 24 25 26 25 24 25 25 25 25 24 25 25
31 33 34 35 35 36 36 35 35 34 34 34 31 29 29 29 28 28 28 27 26 26 25 25 24 23 23 23 25 25 25 25 26 25 24 24 25 24 25 24 26 25 25 25 24 24 24 25 26
34 33 34 35 36 36 35 34 34 34 33 32 31 30 30 30 29 28 28 27 27 26 26 25 24 23 23 23 23 24 24 25 25 25 25 23 24 25 26 24 26 26 25 25 24 24 24 24 24
34 33 34 35 36 36 36 34 34 34 33 32 31 30 30 30 29 29 28 27 27 26 26 25 24 24 23 23 23 23 25 25 25 25 24 24 23 24 24 25 26 26 25 23 24 24 25 25 24
33 34 34 37 36 36 36 35 35 34 33 32 31 30 30 30 30 28 28 28 27 27 26 25 25 25 24 24 23 24 25 25 25 26 25 24 23 23 24 25 26 26 24 23 24 24 23 24 25
34 34 35 36 37 36 36 36 37 35 34 33 32 31 31 30 30 29 28 28 27 26 26 25 25 25 24 23 24 24 24 24 25 25 25 25 24 24 24 26 26 24 25 25 24 24 25 25 25
34 34 36 36 36 36 36 36 37 36 35 34 32 32 31 31 31 29 29 28 28 27 26 25 25 25 24 24 23 24 25 25 25 25 26 25 24 24 24 25 24 24 24 24 24 24 25 25 25
35 35 35 36 37 36 36 37 37 37 35 35 33 33 32 32 32 30 29 28 28 27 26 25 25 24 24 24 24 25 25 25 25 26 25 24 24 24 24 25 24 24 24 25 24 24 24 26 24
34 33 35 36 36 35 36 37 37 38 36 35 35 33 33 33 32 31 29 29 28 27 27 25 25 24 23 24 25 26 26 26 26 26 26 25 25 24 24 25 25 24 26 24 24 24 26 25 25
32 33 34 35 36 36 36 36 37 37 36 36 36 35 34 34 33 32 30 29 29 28 27 26 25 24 24 25 25 25 25 25 26 26 26 25 25 25 24 25 25 24 25 26 24 24 24 27 25
32 33 34 34 34 34 36 35 37 37 36 36 36 36 35 34 34 34 32 30 30 29 28 26 25 24 24 24 25 25 26 27 27 27 27 27 25 25 25 25 24 24 26 26 25 24 24 24 26
32 35 33 33 34 34 35 34 36 38 37 36 36 36 36 35 35 34 34 31 30 29 29 27 26 24 24 24 25 25 25 27 27 27 27 26 26 25 25 25 25 24 24 25 24 24 23 24 26
33 33 33 33 34 33 34 35 36 37 36 37 37 37 36 36 36 35 34 33 31 30 29 28 26 24 24 24 23 25 26 26 27 27 27 27 26 26 25 25 25 24 25 25 24 23 23 24 24
33 32 32 31 32 32 36 35 36 38 39 38 38 38 37 36 36 36 34 34 32 31 30 29 27 25 24 24 24 24 24 25 26 26 27 27 28 27 27 24 24 24 24 25 24 23 24 23 23
32 33 33 31 33 34 36 34 36 38 39 38 39 40 38 37 36 36 35 34 33 32 31 29 28 25 25 25 24 24 24 25 26 26 27 27 28 28 27 25 25 24 25 24 24 24 24 24 23
32 32 35 35 36 34 37 36 37 38 38 38 38 39 39 38 37 36 36 35 33 32 31 29 28 26 25 25 24 24 24 24 26 26 26 26 27 28 27 26 25 25 25 24 24 24 24 24 23
34 34 33 34 32 32 35 35 36 37 36 38 38 39 39 40 39 37 37 36 34 33 31 30 28 27 26 26 25 25 25 25 25 26 25 26 27 26 27 26 25 25 25 24 24 25 24 23 23
33 33 33 35 34 34 34 36 39 37 37 37 39 39 40 40 40 38 38 36 35 34 33 31 29 28 26 26 26 26 25 25 25 25 25 25 25 26 25 26 25 25 25 24 24 24 25 23 23
34 33 34 33 32 34 35 37 38 38 38 38 39 39 40 40 41 40 39 38 36 35 34 32 31 29 28 27 26 26 26 26 26 25 25 25 25 25 25 25 25 25 26 25 24 24 25 24 23